Latitude: N 50° 09' 49" Longitude: W 05° 11' 53" Elevation: 168m ASL

There are 13 visitors online

Adverts

<- Previous Day | Today | Next Day ->

All Data for 18 September 2018

Time
A - D
Temp
A - D
Dew Point
A - D
Humidity
A - D
Pressure
A - D
Wind
A - D
Wind Dir Gust
A - D
Rain Rate
A - D
Rain Total
00:00 16.9 16.8 99 1001.8 29.8 S 30.4 0.0 0.0
00:01 16.9 16.8 99 1002.1 28.9 SW 30.4 0.0 0.0
00:02 16.9 16.8 99 1001.8 22.1 SE 30.4 0.0 0.0
00:03 16.9 16.8 99 1001.7 27.3 S 30.4 0.0 0.0
00:04 16.9 16.8 99 1001.8 29.8 S 30.4 0.0 0.0
00:05 16.9 16.8 99 1001.9 28.2 SE 30.4 0.0 0.0
00:06 16.9 16.8 99 1002.0 32.0 S 32.0 0.0 0.0
00:07 16.9 16.8 99 1001.8 26.6 SE 32.0 0.0 0.0
00:08 16.9 16.8 99 1001.8 23.5 SE 32.0 0.0 0.0
00:09 16.9 16.8 99 1001.8 28.2 S 32.0 0.0 0.0
00:11 16.9 16.8 99 1001.8 23.5 SE 32.0 0.0 0.0
00:12 16.9 16.8 99 1001.9 19.0 SW 32.0 0.0 0.0
00:13 16.9 16.8 99 1001.6 19.0 S 32.0 0.0 0.0
00:14 16.9 16.8 99 1001.8 22.8 SE 32.0 0.0 0.0
00:15 16.9 16.8 99 1001.9 26.6 S 32.0 0.0 0.0
00:16 16.9 16.8 99 1001.8 19.0 SE 28.2 0.0 0.0
00:17 16.9 16.8 99 1001.6 21.3 S 28.2 0.0 0.0
00:18 16.9 16.8 99 1001.8 22.8 S 28.2 0.0 0.0
00:19 16.9 16.8 99 1001.8 27.3 SE 28.2 0.0 0.1
00:20 16.9 16.8 99 1001.7 22.1 S 27.3 0.8 0.1
00:21 16.8 16.7 99 1001.8 19.7 S 27.3 0.8 0.1
00:22 16.8 16.7 99 1001.9 26.6 NNE 27.3 0.8 0.1
00:23 16.8 16.7 99 1001.7 25.1 S 27.3 0.8 0.1
00:24 16.8 16.7 99 1001.8 21.3 SE 27.3 0.8 0.1
00:25 16.8 16.7 99 1001.8 21.3 SE 27.3 0.0 0.1
00:26 16.8 16.7 99 1001.8 35.8 SE 35.8 0.0 0.1
00:27 16.8 16.7 99 1001.8 28.2 S 35.8 0.0 0.1
00:28 16.8 16.7 99 1001.8 24.4 S 35.8 0.0 0.1
00:29 16.8 16.7 99 1001.6 19.0 S 35.8 0.0 0.1
00:31 16.8 16.7 99 1001.8 25.1 SW 35.8 0.0 0.1
00:32 16.8 16.7 99 1002.0 30.4 SW 35.8 0.0 0.1
00:33 16.8 16.7 99 1001.8 24.4 S 35.8 0.8 0.1
00:34 16.8 16.7 99 1001.8 22.8 SE 35.8 0.8 0.1
00:35 16.8 16.7 99 1001.7 29.8 S 35.8 0.8 0.1
00:36 16.8 16.7 99 1001.7 28.2 S 30.4 0.8 0.1
00:37 16.7 16.6 99 1002.0 32.7 SW 32.7 0.8 0.1
00:38 16.7 16.6 99 1001.8 31.1 S 32.7 0.0 0.1
00:39 16.7 16.6 99 1001.7 28.2 S 32.7 0.0 0.1
00:40 16.7 16.6 99 1001.9 25.9 SE 32.7 0.0 0.1
00:41 16.7 16.6 99 1001.8 20.6 SE 32.7 0.0 0.1
00:42 16.7 16.6 99 1001.8 25.9 S 32.7 0.0 0.1
00:43 16.7 16.6 99 1001.8 22.8 SE 32.7 0.0 0.1
00:44 16.7 16.6 99 1001.8 30.4 SW 32.7 0.0 0.1
00:45 16.7 16.6 99 1001.8 21.3 SW 32.7 0.0 0.1
00:46 16.7 16.6 99 1001.6 21.3 S 32.7 0.0 0.1
00:47 16.7 16.6 99 1001.8 27.3 S 32.7 0.0 0.1
00:48 16.7 16.6 99 1001.8 25.9 S 31.1 0.0 0.1
00:50 16.7 16.6 99 1001.9 24.4 S 30.4 0.8 0.2
00:51 16.7 16.6 99 1001.8 26.6 SE 30.4 0.8 0.3
00:52 16.7 16.6 99 1002.0 26.6 S 30.4 1.5 0.3
00:54 16.7 16.6 99 1001.9 24.4 S 28.2 1.5 0.3
00:55 16.7 16.6 99 1001.9 28.2 E 28.2 0.8 0.3
00:57 16.6 16.5 99 1001.9 22.1 SE 28.9 0.8 0.3
00:58 16.6 16.5 99 1002.0 20.6 SW 28.9 0.8 0.3
00:59 16.2 16.1 99 1001.9 21.3 SE 28.9 0.8 0.3
01:00 16.6 16.5 99 1001.9 20.6 SSW 28.9 0.7 0.3
01:01 16.6 16.5 99 1002.2 28.9 S 28.9 0.0 0.3
01:02 16.6 16.5 99 1001.9 26.6 S 28.9 0.0 0.3
01:03 16.6 16.5 99 1002.0 22.8 SE 28.9 0.0 0.4
01:04 16.6 16.5 99 1002.0 28.9 S 28.9 0.8 0.4
01:05 16.6 16.5 99 1002.1 27.3 SE 28.9 0.8 0.4
01:07 16.6 16.5 99 1002.1 26.6 SE 28.9 0.8 0.4
01:08 16.6 16.5 99 1002.0 22.8 SW 28.9 1.5 0.4
01:09 16.6 16.5 99 1002.1 22.8 SW 28.9 0.8 0.4
01:10 16.6 16.5 99 1001.9 25.9 SW 28.9 0.8 0.4
01:11 16.5 16.4 99 1002.0 22.8 SE 28.9 0.8 0.4
01:12 16.5 16.4 99 1002.0 29.8 SW 29.8 0.8 0.4
01:13 16.5 16.4 99 1002.0 29.8 SW 29.8 0.0 0.4
01:14 16.5 16.4 99 1002.1 29.8 S 29.8 0.0 0.4
01:15 16.5 16.4 99 1002.2 28.9 SE 29.8 0.0 0.4
01:16 16.5 16.4 99 1002.1 25.9 E 29.8 0.0 0.4
01:17 16.5 16.4 99 1002.0 17.4 WSW 29.8 0.0 0.4
01:18 16.5 16.4 99 1002.0 25.1 S 29.8 0.0 0.4
01:19 16.5 16.4 99 1002.2 25.1 SE 29.8 0.0 0.4
01:20 16.5 16.4 99 1002.0 25.1 SE 29.8 0.0 0.4
01:21 16.5 16.4 99 1002.2 23.5 SW 29.8 0.0 0.4
01:22 16.5 16.4 99 1002.0 23.5 SE 29.8 0.0 0.4
01:23 16.5 16.4 99 1002.0 25.1 SE 29.8 0.0 0.4
01:24 16.5 16.4 99 1002.1 27.3 E 28.9 0.0 0.5
01:25 16.5 16.4 99 1002.2 20.6 SW 27.3 0.8 0.5
01:27 16.4 16.3 99 1002.2 28.9 S 28.9 0.8 0.5
01:28 16.4 16.3 99 1002.2 22.1 SE 28.9 0.8 0.5
01:29 16.4 16.3 99 1002.0 25.9 SW 28.9 0.8 0.5
01:30 16.4 16.3 99 1002.2 26.6 SE 28.9 0.0 0.5
01:31 16.4 16.3 99 1002.2 21.3 S 28.9 0.0 0.5
01:32 16.4 16.3 99 1002.2 25.1 S 28.9 0.0 0.5
01:33 16.4 16.3 99 1002.2 25.1 S 28.9 0.0 0.5
01:34 16.4 16.3 99 1002.2 27.3 S 28.9 0.0 0.5
01:35 16.4 16.3 99 1002.3 19.7 S 28.9 0.0 0.5
01:36 16.4 16.3 99 1002.3 21.3 S 28.9 0.0 0.5
01:37 16.4 16.3 99 1002.3 29.8 S 29.8 0.0 0.5
01:38 16.3 16.2 99 1002.3 24.4 S 29.8 0.0 0.5
01:39 16.3 16.2 99 1002.2 20.6 S 29.8 0.0 0.5
01:40 16.3 16.2 99 1002.2 21.3 SW 29.8 0.0 0.5
01:41 16.3 16.2 99 1002.1 22.1 S 29.8 0.0 0.5
01:42 16.3 16.2 99 1002.5 19.0 SE 29.8 0.0 0.5
01:43 16.3 16.2 99 1002.4 21.3 S 29.8 0.0 0.5
01:44 16.3 16.2 99 1002.2 21.3 SE 29.8 0.0 0.5
01:45 16.3 16.2 99 1002.3 19.7 SW 29.8 0.0 0.5
01:46 16.3 16.2 99 1002.3 25.1 SW 29.8 0.0 0.5
01:48 16.3 16.2 99 1002.4 19.0 S 25.1 0.0 0.5
01:49 16.3 16.2 99 1002.4 24.4 S 25.1 0.0 0.5
01:50 16.3 16.2 99 1002.4 22.1 SW 25.1 0.0 0.5
01:51 16.3 16.2 99 1002.3 28.2 S 28.2 0.0 0.5
01:52 16.3 16.2 99 1002.5 26.6 SSE 28.2 0.0 0.5
01:53 16.3 16.2 99 1002.4 25.9 SW 28.2 0.0 0.5
01:54 16.3 16.2 99 1002.4 25.9 SW 28.2 0.0 0.5
01:55 16.3 16.2 99 1002.5 25.1 S 29.8 0.0 0.5
01:56 16.3 16.2 99 1002.6 20.6 S 29.8 0.0 0.5
01:57 16.3 16.2 99 1002.3 21.3 SW 29.8 0.0 0.5
01:58 16.3 16.2 99 1002.7 20.6 S 29.8 0.0 0.5
01:59 16.2 16.1 99 1002.6 22.1 S 29.8 0.0 0.5
02:00 16.3 16.2 99 1002.5 23.5 S 29.8 0.0 0.5
02:01 16.3 16.2 99 1002.6 20.6 S 29.8 0.0 0.5
02:02 16.2 16.1 99 1002.6 25.1 SW 29.8 0.0 0.5
02:03 16.2 16.1 99 1002.7 22.1 SW 29.8 0.0 0.5
02:04 16.2 16.1 99 1002.5 17.4 S 26.6 0.0 0.5
02:05 16.2 16.1 99 1002.4 22.8 S 26.6 0.0 0.5
02:07 16.2 16.1 99 1002.7 25.9 S 26.6 0.0 0.5
02:08 16.2 16.1 99 1002.5 26.6 N 26.6 0.0 0.5
02:09 16.2 16.1 99 1002.6 26.6 N 26.6 0.0 0.5
02:11 16.2 16.1 99 1002.4 27.3 SW 27.3 0.0 0.6
02:12 16.2 16.1 99 1002.5 25.1 S 27.3 0.8 0.6
02:13 16.2 16.1 99 1002.6 20.6 SW 27.3 0.8 0.6
02:14 16.2 16.1 99 1002.7 28.9 S 31.1 0.8 0.6
02:15 16.2 16.1 99 1002.7 24.4 SW 31.1 0.8 0.6
02:16 16.2 16.1 99 1002.7 26.6 SE 31.1 0.0 0.6
02:17 16.2 16.1 99 1002.5 22.1 S 31.1 0.0 0.6
02:18 16.2 16.1 99 1002.7 27.3 NW 31.1 0.0 0.6
02:19 16.2 16.1 99 1002.6 27.3 S 31.1 0.0 0.6
02:20 16.2 16.1 99 1002.4 22.1 SSE 31.1 0.0 0.6
02:21 16.2 16.1 99 1002.5 25.1 S 31.1 0.0 0.6
02:22 16.2 16.1 99 1002.8 22.8 S 31.1 0.0 0.6
02:23 16.2 16.1 99 1002.8 22.8 S 31.1 0.0 0.6
02:24 16.2 16.1 99 1002.4 26.6 NNE 31.1 0.0 0.6
02:25 16.2 16.1 99 1002.5 26.6 S 28.9 0.0 0.6
02:27 16.2 16.1 99 1002.8 19.7 S 27.3 0.0 0.6
02:28 16.2 16.1 99 1002.6 20.6 S 27.3 0.0 0.6
02:29 16.2 16.1 99 1002.7 19.7 SE 27.3 0.0 0.6
02:30 16.2 16.1 99 1002.8 26.6 S 26.6 0.0 0.6
02:31 16.2 16.1 99 1002.6 22.1 SW 26.6 0.0 0.6
02:32 17.4 17.3 99 1002.8 19.7 S 26.6 0.0 0.6
02:33 16.2 16.1 99 1002.8 22.8 SW 26.6 0.8 0.6
02:34 16.1 16.0 99 1002.8 23.5 SW 26.6 0.8 0.6
02:35 16.1 16.0 99 1002.8 23.5 S 26.6 0.8 0.6
02:36 16.1 16.0 99 1002.8 19.7 SSW 26.6 0.8 0.6
02:37 16.1 16.0 99 1002.8 25.1 SW 26.6 0.0 0.6
02:38 16.1 16.0 99 1003.0 27.3 SW 28.9 0.0 0.6
02:39 16.1 16.0 99 1002.8 24.4 S 28.9 0.0 0.7
02:40 16.1 16.0 99 1002.7 21.3 SW 28.9 0.8 0.7
02:41 16.1 16.0 99 1003.0 20.6 S 28.9 0.8 0.7
02:42 16.1 16.0 99 1002.8 24.4 SW 28.9 0.8 0.7
02:43 16.1 16.0 99 1002.9 22.8 S 28.9 0.8 0.7
02:44 16.1 16.0 99 1002.8 19.0 S 28.9 0.8 0.7
02:46 16.1 16.0 99 1002.8 22.1 SW 28.9 0.0 0.7
02:47 16.1 16.0 99 1002.9 16.8 S 28.9 0.0 0.7
02:48 16.1 16.0 99 1002.7 17.4 SW 28.9 0.8 0.8
02:49 16.0 15.9 99 1002.8 16.8 S 24.4 0.8 0.8
02:50 16.0 15.9 99 1002.7 19.0 S 24.4 0.8 0.8
02:51 16.0 15.9 99 1002.9 13.6 S 24.4 0.8 0.8
02:52 16.1 16.0 99 1002.8 18.3 SW 24.4 0.8 0.8
02:53 16.0 15.9 99 1002.9 27.3 S 27.3 0.0 0.8
02:54 16.0 15.9 99 1002.8 21.3 SW 27.3 0.0 0.8
02:55 16.0 15.9 99 1002.9 22.8 SW 27.3 0.0 0.8
02:56 16.0 15.9 99 1003.0 26.6 SW 27.3 0.0 0.8
02:57 16.0 15.9 99 1003.0 32.0 S 32.0 0.0 0.8
02:58 16.0 15.9 99 1002.9 29.8 SW 32.0 0.8 0.8
02:59 15.9 15.8 99 1003.1 32.0 SW 32.0 0.8 0.8
03:00 15.9 15.8 99 1003.1 25.9 S 32.0 0.8 0.8
03:01 15.9 15.8 99 1002.9 20.6 SW 32.0 0.8 0.8
03:02 15.9 15.8 99 1003.0 24.4 SW 32.0 0.8 0.8
03:03 15.9 15.8 99 1003.0 24.4 S 32.0 0.0 0.8
03:04 15.9 15.8 99 1002.9 23.5 SW 32.0 0.0 0.8
03:06 15.8 15.7 99 1003.1 25.1 SW 32.0 0.0 0.8
03:07 15.8 15.7 99 1003.1 28.2 S 32.0 0.0 0.8
03:08 15.8 15.7 99 1003.0 25.9 SW 32.0 0.0 0.8
03:09 15.8 15.7 99 1003.0 28.2 S 32.0 0.0 0.8
03:10 15.8 15.7 99 1003.2 28.2 S 28.2 0.0 0.8
03:11 15.8 15.7 99 1003.0 21.3 SW 28.9 0.0 0.8
03:12 15.8 15.7 99 1003.0 22.1 S 28.9 0.0 0.8
03:13 15.8 15.7 99 1003.1 22.8 SW 28.9 0.0 0.8
03:14 15.8 15.7 99 1003.0 28.9 S 28.9 0.0 0.8
03:15 15.7 15.6 99 1003.0 22.8 S 28.9 0.0 0.8
03:16 15.8 15.7 99 1002.9 20.6 SW 28.9 0.0 0.8
03:17 15.7 15.6 99 1003.1 19.0 S 28.9 0.0 0.8
03:18 15.7 15.6 99 1003.1 20.6 S 28.9 0.0 0.8
03:19 15.7 15.6 99 1002.9 25.1 S 28.9 0.0 0.8
03:20 15.7 15.6 99 1003.1 25.1 S 28.9 0.0 0.8
03:21 15.7 15.6 99 1003.0 23.5 S 28.9 0.0 0.8
03:22 15.7 15.6 99 1003.2 20.6 SW 28.9 0.0 0.8
03:23 15.7 15.6 99 1003.3 16.8 S 28.9 0.0 0.8
03:25 15.7 15.6 99 1003.3 15.9 S 27.3 0.0 0.8
03:26 15.7 15.6 99 1003.4 16.8 S 27.3 0.0 0.8
03:27 15.6 15.5 99 1003.4 17.4 S 27.3 0.0 0.8
03:28 15.6 15.5 99 1003.5 24.4 S 27.3 0.0 0.8
03:29 15.6 15.5 99 1003.3 19.0 SW 25.1 0.0 0.8
03:30 15.6 15.5 99 1003.5 25.9 S 25.9 0.0 0.8
03:31 15.6 15.5 99 1003.5 25.9 SW 25.9 0.0 0.8
03:32 15.6 15.5 99 1003.4 22.1 S 25.9 0.0 0.8
03:33 15.6 15.5 99 1003.4 26.6 SSW 26.6 0.0 0.8
03:34 15.6 15.5 99 1003.6 25.9 S 26.6 0.0 0.8
03:35 15.6 15.5 99 1003.5 25.9 S 26.6 0.0 0.8
03:36 15.6 15.5 99 1003.6 23.5 WSW 26.6 0.0 0.8
03:37 15.6 15.5 99 1003.5 27.3 S 27.3 0.0 0.8
03:38 15.6 15.5 99 1003.7 26.6 WSW 27.3 0.0 0.8
03:39 15.5 15.4 99 1003.4 20.6 SW 32.0 0.0 0.8
03:40 15.6 15.5 99 1003.5 25.9 S 32.0 0.0 0.8
03:41 15.5 15.4 99 1003.6 23.5 SSW 32.0 0.0 0.8
03:42 15.5 15.4 99 1003.6 22.1 SW 32.0 0.0 0.8
03:44 15.5 15.4 99 1003.5 21.3 S 32.0 0.0 0.8
03:45 15.5 15.4 99 1003.6 19.7 SW 32.0 0.0 0.8
03:46 15.5 15.4 99 1003.6 20.6 S 32.0 0.0 0.8
03:47 15.5 15.4 99 1003.6 22.8 S 32.0 0.0 0.8
03:48 15.5 15.4 99 1003.7 16.8 SW 32.0 0.0 0.8
03:49 15.5 15.4 99 1003.8 22.1 S 25.9 0.0 0.8
03:50 15.5 15.4 99 1003.8 28.9 SW 28.9 0.8 0.9
03:51 15.5 15.4 99 1003.8 21.3 SW 28.9 0.8 0.9
03:52 15.5 15.4 99 1003.8 22.1 S 28.9 0.8 0.9
03:53 15.5 15.4 99 1003.8 15.9 S 28.9 0.8 0.9
03:55 15.5 15.4 99 1004.0 22.8 S 28.9 0.0 0.9
03:56 15.5 15.4 99 1003.9 19.7 S 28.9 0.0 0.9
03:57 15.5 15.4 99 1003.8 15.9 SW 28.9 0.0 0.9
03:58 15.5 15.4 99 1003.8 17.4 SW 28.9 0.0 0.9
04:00 15.4 15.3 99 1004.1 31.1 WSW 31.1 0.0 0.9
04:01 15.4 15.3 99 1004.2 25.1 SW 31.1 0.0 0.9
04:02 15.4 15.3 99 1004.1 24.4 SW 31.1 0.0 0.9
04:03 15.4 15.3 99 1004.2 22.1 SW 31.1 0.0 0.9
04:04 15.4 15.3 99 1004.2 22.8 SSW 31.1 0.0 0.9
04:05 15.4 15.3 99 1004.1 25.1 S 31.1 0.0 0.9
04:06 15.4 15.3 99 1004.1 26.6 SE 31.1 0.0 0.9
04:07 15.3 15.2 99 1004.2 24.4 WSW 31.1 0.8 0.9
04:08 15.3 15.2 99 1004.2 21.3 SW 31.1 0.8 0.9
04:10 15.3 15.2 99 1003.9 20.6 S 31.1 0.8 0.9
04:11 15.3 15.2 99 1004.2 22.1 NE 26.6 0.8 0.9
04:12 15.2 15.1 99 1004.3 27.3 S 27.3 0.0 0.9
04:13 15.2 15.1 99 1004.4 25.1 SW 27.3 0.0 0.9
04:14 15.2 15.1 99 1004.3 25.1 SW 27.3 0.0 0.9
04:15 15.2 15.1 99 1004.3 21.3 S 27.3 0.0 0.9
04:16 15.2 15.1 99 1004.3 18.3 SW 27.3 0.0 0.9
04:17 15.2 15.1 99 1004.3 24.4 S 27.3 0.0 0.9
04:18 15.2 15.1 99 1004.3 19.0 SW 27.3 0.0 0.9
04:19 15.1 15.0 99 1004.3 15.2 S 27.3 0.0 0.9
04:20 15.1 15.0 99 1004.3 28.2 SW 28.2 0.0 0.9
04:21 15.1 15.0 99 1004.3 22.1 SSW 28.2 0.0 0.9
04:22 15.1 15.0 99 1004.3 25.9 NW 28.2 0.0 0.9
04:23 15.1 15.0 99 1004.3 25.9 NW 28.2 0.0 0.9
04:24 15.1 15.0 99 1004.5 23.5 S 28.2 0.0 0.9
04:25 15.1 15.0 99 1004.4 23.5 SW 28.2 0.0 0.9
04:26 15.0 14.9 99 1004.3 19.0 S 28.2 0.0 0.9
04:27 15.0 14.9 99 1004.3 20.6 SE 28.2 0.0 0.9
04:29 15.0 14.9 99 1004.5 23.5 SW 28.2 0.0 0.9
04:30 15.0 14.9 99 1004.3 24.4 SW 28.2 0.0 0.9
04:31 15.0 14.9 99 1004.5 15.9 NW 25.9 0.0 0.9
04:32 14.9 14.8 99 1004.6 23.5 S 25.9 0.0 0.9
04:33 15.0 14.9 99 1004.6 22.8 S 25.9 0.0 0.9
04:34 14.9 14.8 99 1004.5 22.8 S 27.3 0.0 0.9
04:35 14.9 14.8 99 1004.5 16.8 S 27.3 0.0 0.9
04:36 14.9 14.8 99 1004.6 15.9 SW 27.3 0.0 0.9
04:37 14.9 14.8 99 1004.5 22.1 S 27.3 0.0 0.9
04:38 14.9 14.8 99 1004.7 19.7 WSW 27.3 0.0 0.9
04:39 14.0 13.9 99 1004.6 22.8 SW 27.3 0.0 0.9
04:40 14.8 14.7 99 1004.6 21.3 S 27.3 0.0 0.9
04:41 14.8 14.7 99 1004.7 26.6 SW 27.3 0.0 0.9
04:42 14.8 14.7 99 1004.7 26.6 SW 27.3 0.0 0.9
04:43 14.8 14.7 99 1004.6 18.3 S 27.3 0.0 0.9
04:44 14.8 14.7 99 1004.8 22.1 S 27.3 0.0 0.9
04:45 14.8 14.7 99 1004.8 22.8 S 26.6 0.0 0.9
04:46 14.8 14.7 99 1004.8 19.7 S 26.6 0.0 0.9
04:48 14.7 14.6 99 1004.9 24.4 S 26.6 0.0 0.9
04:49 14.8 14.7 99 1004.9 21.3 S 26.6 0.0 0.9
04:50 14.7 14.6 99 1004.8 23.5 SW 26.6 0.0 0.9
04:51 14.7 14.6 99 1004.8 18.3 S 26.6 0.0 0.9
04:52 14.7 14.6 99 1004.8 28.2 SE 28.2 0.0 0.9
04:53 14.7 14.6 99 1005.0 17.4 SE 28.2 0.0 0.9
04:54 14.7 14.6 99 1005.1 17.4 SW 28.2 0.0 0.9
04:55 14.7 14.6 99 1005.0 19.0 SW 28.2 0.0 0.9
04:56 14.7 14.6 99 1005.0 22.1 S 28.2 0.0 0.9
04:57 14.7 14.6 99 1005.1 23.5 S 28.2 0.0 0.9
04:58 14.7 14.6 99 1005.1 25.9 SW 28.2 0.0 0.9
04:59 14.7 14.6 99 1005.1 26.6 SW 28.2 0.0 0.9
05:00 14.7 14.6 99 1005.2 20.6 SW 28.2 0.0 0.9
05:01 14.7 14.6 99 1005.0 23.5 NW 28.2 0.0 0.9
05:02 14.7 14.6 99 1005.2 20.6 S 26.6 0.0 0.9
05:03 14.7 14.6 99 1005.2 20.6 S 26.6 0.0 0.9
05:04 14.7 14.6 99 1005.2 19.7 SW 26.6 0.0 0.9
05:05 14.7 14.6 99 1005.2 22.1 S 26.6 0.0 0.9
05:06 14.7 14.6 99 1005.3 15.9 S 26.6 0.0 0.9
05:09 14.7 14.6 99 1005.3 18.3 SW 28.2 0.0 0.9
05:10 14.7 14.6 99 1005.3 18.3 SW 28.2 0.0 0.9
05:11 14.7 14.6 99 1005.3 17.4 NNE 28.2 0.0 0.9
05:12 14.6 14.5 99 1005.3 18.3 S 28.2 0.0 0.9
05:13 14.6 14.5 99 1005.2 20.6 SW 28.2 0.0 0.9
05:14 14.6 14.5 99 1005.3 18.3 SE 28.2 0.0 0.9
05:15 14.6 14.5 99 1005.2 17.4 SW 28.2 0.0 0.9
05:16 14.6 14.5 99 1005.5 18.3 WNW 28.2 0.0 0.9
05:17 14.6 14.5 99 1005.6 22.1 SW 22.1 0.0 0.9
05:18 14.6 14.5 99 1005.5 15.9 S 22.1 0.0 0.9
05:19 14.6 14.5 99 1005.5 15.2 SW 22.1 0.0 0.9
05:20 14.6 14.5 99 1005.3 18.3 S 22.1 0.0 0.9
05:21 14.6 14.5 99 1005.5 16.8 SW 22.1 0.0 0.9
05:22 14.6 14.5 99 1005.5 16.8 SW 22.1 0.0 0.9
05:23 14.6 14.5 99 1005.5 17.4 SW 22.1 0.0 0.9
05:24 14.6 14.5 99 1005.6 17.4 S 22.1 0.0 0.9
05:25 14.6 14.5 99 1005.4 21.3 SW 22.1 0.0 0.9
05:26 14.6 14.5 99 1005.5 22.8 S 22.8 0.0 0.9
05:28 14.5 14.4 99 1005.6 15.9 S 22.8 0.0 0.9
05:29 14.6 14.5 99 1005.5 22.1 S 22.8 0.0 0.9
05:30 14.5 14.4 99 1005.6 13.6 S 22.8 0.0 0.9
05:31 14.6 14.5 99 1005.6 15.9 S 22.8 0.0 0.9
05:32 14.6 14.5 99 1005.6 19.0 SW 22.8 0.0 0.9
05:33 14.6 14.5 99 1005.5 12.1 SW 22.8 0.0 0.9
05:34 14.6 14.5 99 1005.6 15.2 SW 22.8 0.0 0.9
05:35 14.5 14.4 99 1005.7 23.5 SW 23.5 0.0 0.9
05:36 14.5 14.4 99 1005.8 19.7 SE 23.5 0.0 0.9
05:37 14.6 14.5 99 1005.8 19.0 N 23.5 0.0 0.9
05:38 14.6 14.5 99 1005.6 15.9 SW 23.5 0.0 0.9
05:39 14.5 14.4 99 1005.8 13.0 S 23.5 0.0 0.9
05:40 14.5 14.4 99 1005.7 12.1 SW 23.5 0.0 0.9
05:41 14.5 14.4 99 1005.7 19.7 SW 23.5 0.0 0.9
05:42 14.6 14.5 99 1005.6 21.3 SW 23.5 0.0 0.9
05:43 14.5 14.4 99 1005.7 19.0 SSW 23.5 0.0 0.9
05:44 14.5 14.4 99 1005.9 16.8 S 23.5 0.0 0.9
05:45 14.5 14.4 99 1005.8 16.8 SW 23.5 0.0 0.9
05:47 14.6 14.5 99 1006.0 19.7 SW 21.3 0.0 0.9
05:48 14.6 14.5 99 1005.9 19.7 S 21.3 0.0 0.9
05:49 14.6 14.5 99 1006.0 18.3 SW 21.3 0.0 0.9
05:50 14.6 14.5 99 1006.1 15.2 S 21.3 0.0 0.9
05:51 14.8 14.7 99 1006.3 13.6 SW 21.3 0.0 0.9
05:52 14.6 14.5 99 1006.3 19.7 S 19.7 0.0 0.9
05:53 14.6 14.5 99 1006.2 19.0 S 19.7 0.0 0.9
05:54 14.6 14.5 99 1006.3 22.1 SW 22.1 0.0 0.9
05:55 14.6 14.5 99 1006.1 13.0 SW 22.1 0.0 0.9
05:56 14.6 14.5 99 1006.2 16.8 SW 22.1 0.0 0.9
05:57 14.6 14.5 99 1006.2 22.1 SW 22.1 0.0 0.9
05:58 14.6 14.5 99 1006.2 21.3 SW 22.1 0.0 0.9
05:59 14.6 14.5 99 1006.3 19.0 SW 22.1 0.0 0.9
06:00 14.6 14.5 99 1006.2 14.5 S 22.1 0.0 0.9
06:01 14.6 14.5 99 1006.2 16.8 S 22.1 0.0 0.9
06:02 14.5 14.4 99 1006.3 13.0 SW 22.1 0.0 0.9
06:03 14.6 14.5 99 1006.3 18.3 SW 22.1 0.0 0.9
06:05 14.6 14.5 99 1006.3 18.3 NW 22.1 0.0 0.9
06:06 14.5 14.4 99 1006.4 14.5 SW 22.1 0.0 0.9
06:07 14.5 14.4 99 1006.3 13.0 S 22.1 0.0 0.9
06:08 14.5 14.4 99 1006.4 15.9 SW 21.3 0.0 0.9
06:09 14.5 14.4 99 1006.5 25.9 WSW 25.9 0.0 0.9
06:10 14.5 14.4 99 1006.4 13.0 SW 25.9 0.0 0.9
06:11 14.6 14.5 99 1006.3 18.3 SW 25.9 0.0 0.9
06:12 14.6 14.5 99 1006.4 21.3 SW 25.9 0.0 0.9
06:13 14.5 14.4 99 1006.4 17.4 SW 25.9 0.0 0.9
06:14 14.6 14.5 99 1006.5 22.1 SW 25.9 0.0 0.9
06:15 14.6 14.5 99 1006.4 17.4 SW 25.9 0.0 0.9
06:16 14.6 14.5 99 1006.4 15.2 SW 25.9 0.0 0.9
06:17 14.6 14.5 99 1006.5 20.6 SW 25.9 0.0 0.9
06:18 14.6 14.5 99 1006.5 20.6 SW 25.9 0.0 0.9
06:19 14.5 14.4 99 1006.4 17.4 SSW 25.9 0.0 0.9
06:20 14.6 14.5 99 1006.5 20.6 WSW 22.1 0.0 0.9
06:21 14.6 14.5 99 1006.7 22.1 W 22.1 0.0 0.9
06:22 14.6 14.5 99 1006.5 15.2 SW 22.1 0.0 0.9
06:24 14.6 14.5 99 1006.6 11.4 NE 22.1 0.0 0.9
06:25 14.6 14.5 99 1006.7 15.9 NNW 22.1 0.0 0.9
06:26 14.6 14.5 99 1006.6 19.0 SW 22.1 0.0 0.9
06:27 14.6 14.5 99 1006.6 13.0 SW 22.1 0.0 0.9
06:28 14.6 14.5 99 1006.7 13.6 SW 22.1 0.0 0.9
06:29 14.6 14.5 99 1006.7 18.3 S 22.1 0.0 0.9
06:30 14.6 14.5 99 1006.7 18.3 S 22.1 0.0 0.9
06:31 14.7 14.6 99 1006.7 14.5 S 19.7 0.0 0.9
06:32 14.7 14.6 99 1006.7 18.3 SW 19.7 0.0 0.9
06:33 14.6 14.5 99 1006.5 14.5 S 19.0 0.0 0.9
06:34 14.7 14.6 99 1006.8 13.6 SW 19.0 0.0 0.9
06:35 14.7 14.6 99 1006.7 15.2 SW 19.0 0.0 0.9
06:36 14.7 14.6 99 1006.8 12.1 SW 18.3 0.0 0.9
06:37 14.7 14.6 99 1006.7 12.1 SW 18.3 0.0 0.9
06:38 14.7 14.6 99 1006.8 15.2 SW 18.3 0.0 0.9
06:40 14.7 14.6 99 1006.8 15.2 S 20.6 0.0 0.9
06:41 14.7 14.6 99 1006.8 14.5 SW 20.6 0.0 0.9
06:42 14.7 14.6 99 1006.8 15.2 S 20.6 0.0 0.9
06:43 14.7 14.6 99 1007.0 15.9 SE 20.6 0.0 0.9
06:44 14.7 14.6 99 1006.9 19.7 S 20.6 0.0 0.9
06:45 14.7 14.6 99 1006.9 15.9 SW 20.6 0.0 0.9
06:46 14.7 14.6 99 1006.9 15.9 S 20.6 0.0 0.9
06:47 14.7 14.6 99 1007.0 19.0 SW 20.6 0.0 0.9
06:48 14.8 14.7 99 1006.9 20.6 SW 20.6 0.0 0.9
06:49 14.8 14.7 99 1006.9 19.7 S 20.6 0.0 0.9
06:50 14.8 14.7 99 1006.9 19.7 S 20.6 0.0 0.9
06:51 14.8 14.7 99 1006.9 13.6 SW 20.6 0.0 0.9
06:52 14.8 14.7 99 1007.0 16.8 S 20.6 0.0 0.9
06:54 14.8 14.7 99 1007.0 16.8 SW 20.6 0.0 0.9
06:55 14.7 14.6 99 1007.0 22.1 SW 22.1 0.0 0.9
06:56 14.8 14.7 99 1007.1 17.4 NW 22.1 0.0 0.9
06:57 14.8 14.7 99 1006.9 12.1 S 22.1 0.0 0.9
06:58 14.8 14.7 99 1007.0 13.6 SE 22.1 0.0 0.9
06:59 14.7 14.6 99 1006.9 22.8 NE 22.8 0.0 0.9
07:00 14.7 14.6 99 1007.1 19.0 SW 22.8 0.0 0.9
07:01 14.8 14.7 99 1006.9 18.3 SW 22.8 0.0 0.9
07:02 14.8 14.7 99 1007.2 15.9 SW 22.8 0.0 0.9
07:03 14.8 14.7 99 1007.1 19.0 SW 22.8 0.0 0.9
07:04 14.8 14.7 99 1007.0 20.6 SW 22.8 0.0 0.9
07:05 14.8 14.7 99 1007.0 21.3 SW 22.8 0.0 0.9
07:06 14.8 14.7 99 1007.2 15.2 SW 22.8 0.0 0.9
07:07 14.8 14.7 99 1007.3 15.9 S 22.8 0.0 0.9
07:08 14.8 14.7 99 1007.2 14.5 SW 22.8 0.0 0.9
07:09 14.8 14.7 99 1007.2 13.6 S 22.8 0.0 0.9
07:10 14.8 14.7 99 1007.3 13.6 S 21.3 0.0 0.9
07:11 14.8 14.7 99 1007.4 15.9 S 21.3 0.0 0.9
07:13 14.8 14.7 99 1007.3 17.4 S 21.3 0.0 0.9
07:14 14.8 14.7 99 1007.3 14.5 S 21.3 0.0 0.9
07:15 14.8 14.7 99 1007.3 17.4 SW 21.3 0.0 0.9
07:16 14.8 14.7 99 1007.3 18.3 WNW 18.3 0.0 0.9
07:17 14.8 14.7 99 1007.5 18.3 S 21.3 0.0 0.9
07:18 14.9 14.8 99 1007.4 15.2 SW 21.3 0.0 0.9
07:19 14.8 14.7 99 1007.5 19.0 WSW 21.3 0.0 0.9
07:20 14.8 14.7 99 1007.5 14.5 SE 21.3 0.0 0.9
07:21 14.8 14.7 99 1007.4 25.1 SW 25.1 0.0 0.9
07:22 14.8 14.7 99 1007.4 18.3 SW 25.1 0.0 0.9
07:23 14.8 14.7 99 1007.3 14.5 S 25.1 0.0 0.9
07:24 14.8 14.7 99 1007.4 13.0 SW 25.1 0.0 0.9
07:25 14.8 14.7 99 1007.5 15.2 S 25.1 0.0 0.9
07:27 14.9 14.8 99 1007.4 15.9 SW 25.1 0.0 0.9
07:28 14.9 14.8 99 1007.6 14.5 S 25.1 0.0 0.9
07:29 14.9 14.8 99 1007.5 15.2 SW 25.1 0.0 0.9
07:30 14.9 14.8 99 1007.6 17.4 SW 25.1 0.0 0.9
07:31 14.9 14.8 99 1007.6 15.9 SW 25.1 0.0 0.9
07:32 14.9 14.8 99 1007.7 20.6 S 20.6 0.0 0.9
07:33 14.9 14.8 99 1007.8 19.0 S 20.6 0.0 0.9
07:34 14.9 14.8 99 1007.8 15.2 SW 20.6 0.0 0.9
07:35 14.9 14.8 99 1007.7 15.9 S 20.6 0.0 0.9
07:36 14.9 14.8 99 1007.8 23.5 S 23.5 0.0 0.9
07:37 14.9 14.8 99 1007.8 15.2 S 23.5 0.0 0.9
07:38 14.9 14.8 99 1007.9 15.9 SW 23.5 0.0 0.9
07:39 14.9 14.8 99 1007.7 20.6 S 23.5 0.0 0.9
07:41 14.9 14.8 99 1007.8 17.4 SE 23.5 0.0 0.9
07:42 14.9 14.8 99 1007.7 13.0 SW 23.5 0.0 0.9
07:43 14.9 14.8 99 1007.7 13.6 SW 23.5 0.0 0.9
07:44 14.9 14.8 99 1007.8 12.1 S 23.5 0.0 0.9
07:45 14.9 14.8 99 1007.8 13.6 SW 23.5 0.0 0.9
07:46 14.9 14.8 99 1008.0 13.6 SSW 21.3 0.0 0.9
07:47 14.9 14.8 99 1007.9 12.1 SSW 21.3 0.0 0.9
07:48 14.9 14.8 99 1007.8 15.9 SSW 21.3 0.0 0.9
07:49 14.9 14.8 99 1007.8 13.6 S 21.3 0.0 0.9
07:50 14.9 14.8 99 1007.8 10.7 SW 17.4 0.0 0.9
07:51 14.9 14.8 99 1007.8 19.0 S 19.0 0.0 0.9
07:52 14.9 14.8 99 1007.9 19.0 NNE 19.0 0.0 0.9
07:53 14.9 14.8 99 1008.0 19.0 SW 19.0 0.0 0.9
07:54 14.9 14.8 99 1008.0 15.2 SW 19.0 0.0 0.9
07:56 14.9 14.8 99 1008.0 11.4 E 19.0 0.0 0.9
07:57 14.9 14.8 99 1008.1 14.5 N 19.0 0.0 0.9
07:58 14.9 14.8 99 1008.1 13.6 SW 19.0 0.0 0.9
07:59 14.9 14.8 99 1008.3 13.6 SW 19.0 0.0 0.9
08:00 14.9 14.8 99 1008.1 14.5 S 19.0 0.0 0.9
08:01 14.9 14.8 99 1008.2 15.9 S 19.0 0.0 0.9
08:02 14.9 14.8 99 1008.3 14.5 S 19.0 0.0 0.9
08:03 14.9 14.8 99 1008.2 17.4 S 17.4 0.0 0.9
08:04 14.9 14.8 99 1008.2 13.6 SW 17.4 0.0 0.9
08:05 14.9 14.8 99 1008.3 13.0 WNW 17.4 0.0 0.9
08:06 14.9 14.8 99 1008.3 13.6 S 17.4 0.0 0.9
08:07 14.9 14.8 99 1008.3 15.2 SW 17.4 0.0 0.9
08:08 15.0 14.9 99 1008.4 13.6 SSW 17.4 0.0 0.9
08:10 14.9 14.8 99 1008.4 13.6 SW 17.4 0.0 0.9
08:11 15.0 14.9 99 1008.7 18.3 S 18.3 0.0 0.9
08:12 15.0 14.9 99 1008.5 16.8 S 18.3 0.0 0.9
08:13 15.0 14.9 99 1008.5 14.5 WNW 18.3 0.0 0.9
08:14 15.0 14.9 99 1008.5 12.1 SW 18.3 0.0 0.9
08:15 15.0 14.9 99 1008.5 11.4 S 18.3 0.0 0.9
08:16 15.0 14.9 99 1008.4 17.4 S 18.3 0.0 0.9
08:17 15.0 14.9 99 1008.6 13.0 S 18.3 0.0 0.9
08:18 15.0 14.9 99 1008.5 12.1 S 18.3 0.0 0.9
08:20 15.0 14.9 99 1008.5 15.2 WSW 18.3 0.0 0.9
08:21 15.0 14.9 99 1008.6 11.4 SW 17.4 0.0 0.9
08:22 15.1 15.0 99 1008.7 14.5 SE 17.4 0.0 0.9
08:23 15.1 15.0 99 1008.6 19.7 S 19.7 0.0 0.9
08:24 15.1 15.0 99 1008.7 14.5 SW 19.7 0.0 0.9
08:25 15.1 15.0 99 1008.7 15.9 SW 19.7 0.0 0.9
08:26 15.1 15.0 99 1008.7 15.9 SW 19.7 0.0 0.9
08:27 15.1 15.0 99 1008.7 15.2 S 19.7 0.0 0.9
08:28 15.1 15.0 99 1008.6 13.6 WSW 19.7 0.0 0.9
08:29 15.1 15.0 99 1008.7 16.8 S 19.7 0.0 0.9
08:32 15.1 15.0 99 1008.8 16.8 SW 19.7 0.0 0.9
08:33 15.1 15.0 99 1009.0 21.3 S 21.3 0.0 0.9
08:34 15.1 15.0 99 1008.7 13.0 S 21.3 0.0 0.9
08:36 15.2 15.1 99 1008.8 15.2 SW 21.3 0.0 0.9
08:37 15.1 15.0 99 1008.9 12.1 ESE 21.3 0.0 0.9
08:38 15.1 15.0 99 1008.8 13.0 ESE 21.3 0.0 0.9
08:39 15.1 15.0 99 1008.8 13.6 SW 21.3 0.0 0.9
08:40 15.2 15.1 99 1008.9 12.1 SW 21.3 0.0 0.9
08:41 15.2 15.1 99 1008.8 10.7 NNW 21.3 0.0 0.9
08:42 15.2 15.1 99 1008.9 13.6 S 21.3 0.0 0.9
08:43 15.2 15.1 99 1008.9 13.6 S 21.3 0.0 0.9
08:44 15.2 15.1 99 1008.9 15.9 S 15.9 0.0 0.9
08:46 15.2 15.1 99 1008.9 15.9 S 17.4 0.0 0.9
08:47 15.3 15.2 99 1008.8 13.6 S 17.4 0.0 0.9
08:48 15.3 15.2 99 1008.8 18.3 SE 18.3 0.0 0.9
08:49 15.3 15.2 99 1009.0 13.0 S 18.3 0.0 0.9
08:50 15.4 15.3 99 1008.9 15.2 SE 18.3 0.0 0.9
08:51 15.4 15.3 99 1008.8 13.6 S 18.3 0.0 0.9
08:52 15.4 15.3 99 1008.8 15.2 S 18.3 0.0 0.9
08:53 15.4 15.3 99 1008.8 12.1 SE 18.3 0.0 0.9
08:54 15.4 15.3 99 1008.9 15.9 S 18.3 0.0 0.9
08:55 15.4 15.3 99 1008.8 15.2 S 18.3 0.0 0.9
08:56 15.5 15.4 99 1009.0 15.2 S 18.3 0.0 0.9
08:57 15.5 15.4 99 1008.8 17.4 SW 18.3 0.0 0.9
08:58 15.5 15.4 99 1008.9 15.2 SSW 18.3 0.0 0.9
09:00 15.5 15.4 99 1008.9 15.2 SW 18.3 0.0 0.9
09:01 15.5 15.4 99 1008.9 15.9 S 18.3 0.0 0.9
09:02 15.5 15.4 99 1009.1 18.3 SW 18.3 0.0 0.9
09:03 15.6 15.5 99 1009.0 15.9 S 18.3 0.0 0.9
09:05 15.6 15.5 99 1008.9 19.7 S 19.7 0.0 0.9
09:06 15.6 15.5 99 1008.9 15.2 SE 19.7 0.0 0.9
09:07 15.7 15.6 99 1009.1 12.1 S 19.7 0.0 0.9
09:08 15.7 15.6 99 1009.2 15.9 S 19.7 0.0 0.9
09:09 15.7 15.6 99 1009.0 15.9 S 19.7 0.0 0.9
09:10 15.8 15.7 99 1009.1 16.8 SW 19.7 0.0 0.9
09:11 15.8 15.7 99 1009.1 13.6 SSE 19.7 0.0 0.9
09:12 15.8 15.7 99 1009.1 15.9 SE 19.7 0.0 0.9
09:13 15.8 15.7 99 1009.0 15.9 SE 19.7 0.0 0.9
09:14 15.8 15.7 99 1009.0 15.9 SE 19.7 0.0 0.9
09:15 15.9 15.8 99 1009.0 15.9 SE 19.7 0.0 0.9
09:16 15.9 15.8 99 1009.1 15.9 SSW 18.3 0.0 0.9
09:17 15.9 15.8 99 1009.1 19.7 SW 19.7 0.0 0.9
09:19 16.0 15.9 99 1009.2 19.7 S 20.6 0.0 0.9
09:20 16.0 15.9 99 1009.1 19.7 SW 20.6 0.0 0.9
09:21 16.0 15.9 99 1009.0 14.5 SW 20.6 0.0 0.9
09:22 16.0 15.9 99 1009.1 14.5 S 20.6 0.0 0.9
09:23 16.0 15.9 99 1009.1 14.5 SW 20.6 0.0 0.9
09:24 16.1 16.0 99 1009.1 15.9 S 20.6 0.0 0.9
09:25 16.1 16.0 99 1009.2 15.2 S 20.6 0.0 0.9
09:26 16.1 16.0 99 1009.0 14.5 SSE 20.6 0.0 0.9
09:27 16.1 16.0 99 1009.2 25.1 S 25.1 0.0 0.9
09:28 16.1 16.0 99 1009.0 19.0 SE 25.1 0.0 0.9
09:29 16.1 16.0 99 1009.0 18.3 S 25.1 0.0 0.9
09:30 16.1 16.0 99 1009.1 17.4 S 25.1 0.0 0.9
09:31 16.1 16.0 99 1008.9 11.4 S 25.1 0.0 0.9
09:33 16.2 16.1 99 1009.1 13.0 SW 25.1 0.0 0.9
09:34 16.2 16.1 99 1009.2 19.0 SW 25.1 0.0 0.9
09:35 16.2 16.1 99 1009.1 16.8 S 25.1 0.0 0.9
09:36 16.2 16.1 99 1009.2 15.2 SW 25.1 0.0 0.9
09:37 16.2 16.1 99 1009.1 15.2 S 19.0 0.0 0.9
09:38 16.3 16.2 99 1009.3 19.0 SW 19.0 0.0 0.9
09:39 16.3 16.2 99 1009.2 15.9 SSW 19.0 0.0 0.9
09:40 16.4 16.3 99 1009.2 19.7 S 19.7 0.0 0.9
09:41 16.4 16.3 99 1009.2 17.4 SE 19.7 0.0 0.9
09:42 16.4 16.3 99 1009.2 17.4 SE 19.7 0.0 0.9
09:43 16.4 16.3 99 1009.2 12.1 SE 20.6 0.0 0.9
09:44 16.4 16.3 99 1009.3 20.6 S 20.6 0.0 0.9
09:45 16.5 16.4 99 1009.2 19.0 S 20.6 0.0 0.9
09:46 16.5 16.4 99 1009.3 19.7 SW 20.6 0.0 0.9
09:48 16.5 16.4 99 1009.3 15.2 S 20.6 0.0 0.9
09:49 16.5 16.4 99 1009.2 19.7 S 20.6 0.0 0.9
09:50 16.5 16.4 99 1009.3 19.0 SE 20.6 0.0 0.9
09:51 16.6 16.5 99 1009.2 16.8 S 21.3 0.0 0.9
09:52 16.6 16.5 99 1009.3 18.3 SE 21.3 0.0 0.9
09:53 16.6 16.5 99 1009.4 16.8 S 21.3 0.0 0.9
09:54 16.7 16.6 99 1009.3 19.7 S 21.3 0.0 0.9
09:55 16.7 16.6 99 1009.5 19.7 S 21.3 0.0 0.9
09:56 16.7 16.6 99 1009.4 19.7 S 21.3 0.0 0.9
09:57 16.7 16.6 99 1009.5 20.6 SE 21.3 0.0 0.9
09:58 16.7 16.6 99 1009.6 15.9 SW 21.3 0.0 0.9
09:59 16.8 16.7 99 1009.4 17.4 SW 21.3 0.0 0.9
10:00 16.8 16.7 99 1009.5 16.8 SW 21.3 0.0 0.9
10:02 16.8 16.7 99 1009.6 17.4 S 20.6 0.0 0.9
10:03 16.7 16.6 99 1009.5 21.3 S 21.3 0.0 0.9
10:04 16.7 16.6 99 1009.6 18.3 SSW 21.3 0.0 0.9
10:05 16.7 16.6 99 1009.6 21.3 S 21.3 0.0 0.9
10:06 16.7 16.6 99 1009.7 15.9 SW 21.3 0.0 0.9
10:07 16.6 16.5 99 1009.6 15.2 S 21.3 0.0 0.9
10:08 16.6 16.5 99 1009.7 14.5 S 21.3 0.0 0.9
10:09 16.6 16.5 99 1009.6 19.7 SW 21.3 0.0 0.9
10:10 16.6 16.5 99 1009.6 19.7 SW 21.3 0.0 0.9
10:11 16.6 16.5 99 1009.8 15.2 S 21.3 0.0 0.9
10:12 16.5 16.4 99 1009.8 19.0 SW 21.3 0.0 0.9
10:13 16.5 16.4 99 1009.9 21.3 S 21.3 0.0 0.9
10:14 16.5 16.4 99 1009.7 20.6 SW 21.3 0.0 0.9
10:16 16.4 16.3 99 1009.8 15.9 S 21.3 0.0 0.9
10:17 16.4 16.3 99 1009.8 15.2 S 21.3 0.0 0.9
10:18 16.4 16.3 99 1009.7 9.8 S 21.3 0.0 0.9
10:19 16.4 16.3 99 1009.8 15.2 S 21.3 0.0 0.9
10:20 16.4 16.3 99 1009.8 18.3 S 21.3 0.0 0.9
10:21 16.3 16.2 99 1010.0 19.7 SW 21.3 0.0 0.9
10:22 16.3 16.2 99 1009.9 18.3 S 21.3 0.0 0.9
10:23 16.3 16.2 99 1009.9 17.4 S 20.6 0.0 0.9
10:24 16.3 16.2 99 1009.9 12.1 S 19.7 0.0 0.9
10:25 16.3 16.2 99 1010.0 19.0 S 19.7 0.0 0.9
10:26 16.3 16.2 99 1010.1 18.3 S 19.7 0.0 0.9
10:27 16.3 16.2 99 1010.1 15.2 S 19.7 0.0 0.9
10:28 16.3 16.2 99 1009.9 16.8 S 19.7 0.0 0.9
10:29 16.3 16.2 99 1009.9 13.0 NW 19.7 0.0 0.9
10:31 16.3 16.2 99 1010.1 14.5 S 19.7 0.0 0.9
10:32 16.3 16.2 99 1009.9 14.5 SW 19.0 0.0 0.9
10:33 16.3 16.2 99 1010.1 17.4 S 19.0 0.0 0.9
10:34 16.3 16.2 99 1010.0 10.7 W 19.0 0.0 0.9
10:35 16.3 16.2 99 1010.0 13.0 SW 18.3 0.0 0.9
10:36 16.3 16.2 99 1010.0 15.2 SW 18.3 0.0 0.9
10:37 16.3 16.2 99 1009.9 13.0 S 18.3 0.0 0.9
10:38 16.3 16.2 99 1009.9 15.2 SW 18.3 0.0 0.9
10:39 16.3 16.2 99 1010.2 13.6 S 18.3 0.0 0.9
10:40 16.3 16.2 99 1009.9 15.2 SW 18.3 0.0 0.9
10:41 16.3 16.2 99 1009.9 16.8 S 17.4 0.0 0.9
10:42 16.3 16.2 99 1009.8 13.0 S 17.4 0.0 0.9
10:43 16.3 16.2 99 1010.1 16.8 S 17.4 0.0 0.9
10:44 16.3 16.2 99 1010.1 19.0 S 19.0 0.0 0.9
10:46 16.3 16.2 99 1010.0 14.5 S 19.0 0.0 0.9
10:47 16.3 16.2 99 1009.9 17.4 SE 19.0 0.0 0.9
10:48 16.3 16.2 99 1010.0 18.3 SE 19.0 0.0 0.9
10:49 16.4 16.3 99 1009.9 16.8 SE 23.5 0.0 0.9
10:50 16.4 16.3 99 1009.9 19.0 SW 23.5 0.0 0.9
10:51 16.4 16.3 99 1009.9 16.8 S 23.5 0.0 0.9
10:52 16.4 16.3 99 1009.9 15.9 SW 23.5 0.0 0.9
10:53 16.5 16.4 99 1010.0 15.9 SW 23.5 0.0 0.9
10:54 16.5 16.4 99 1009.9 12.1 SW 23.5 0.0 0.9
10:55 16.5 16.4 99 1009.9 19.0 S 23.5 0.0 0.9
10:56 16.6 16.5 99 1009.9 19.0 S 23.5 0.0 0.9
10:57 16.6 16.5 99 1009.9 15.9 S 23.5 0.0 0.9
10:58 16.6 16.5 99 1010.1 16.8 S 23.5 0.0 0.9
11:00 16.7 16.6 99 1009.9 10.7 S 19.0 0.0 0.9
11:01 16.7 16.6 99 1010.1 16.8 SW 19.0 0.0 0.9
11:02 16.7 16.6 99 1009.9 15.9 SW 19.0 0.0 0.9
11:03 16.8 16.7 99 1010.1 15.2 S 19.0 0.0 0.9
11:04 16.8 16.7 99 1010.0 16.8 S 19.0 0.0 0.9
11:05 16.8 16.7 99 1010.0 15.9 S 19.0 0.0 0.9
11:06 16.8 16.7 99 1009.9 16.8 S 16.8 0.0 0.9
11:07 16.9 16.8 99 1010.0 10.7 SW 16.8 0.0 0.9
11:08 16.9 16.8 99 1010.0 19.0 S 19.0 0.0 0.9
11:09 16.9 16.8 99 1010.0 18.3 SE 19.0 0.0 0.9
11:10 16.9 16.8 99 1009.8 15.2 S 19.0 0.0 0.9
11:11 16.9 16.8 99 1009.9 13.6 NE 19.0 0.0 0.9
11:12 17.0 16.9 99 1010.0 15.2 SW 19.0 0.0 0.9
11:13 17.0 16.9 99 1010.2 19.7 S 19.7 0.0 0.9
11:14 17.0 16.9 99 1010.2 19.7 S 19.7 0.0 0.9
11:15 17.0 16.9 99 1010.2 19.7 NW 19.7 0.0 0.9
11:16 17.0 16.9 99 1010.3 19.7 SE 19.7 0.0 0.9
11:17 17.0 16.9 99 1010.1 16.8 SE 19.7 0.0 0.9
11:18 17.1 17.0 99 1010.1 19.7 S 19.7 0.0 0.9
11:20 17.0 16.9 99 1010.3 19.7 S 19.7 0.0 0.9
11:21 17.1 17.0 99 1010.2 12.1 S 19.7 0.0 0.9
11:22 17.1 17.0 99 1010.3 16.8 S 19.7 0.0 0.9
11:23 17.1 17.0 99 1010.3 20.6 S 20.6 0.0 0.9
11:24 17.0 16.9 99 1010.3 16.8 S 20.6 0.0 0.9
11:25 17.0 16.9 99 1010.3 21.3 S 21.3 0.0 0.9
11:26 17.1 17.0 99 1010.2 19.0 SE 21.3 0.0 0.9
11:27 17.0 16.9 99 1010.2 12.1 W 21.3 0.0 0.9
11:28 17.0 16.9 99 1010.3 19.7 S 21.3 0.0 0.9
11:29 17.0 16.9 99 1010.1 15.2 SW 21.3 0.0 0.9
11:30 17.0 16.9 99 1010.4 17.4 S 21.3 0.0 0.9
11:31 17.0 16.9 99 1010.3 14.5 SW 22.1 0.0 0.9
11:32 17.0 16.9 99 1010.2 15.9 S 22.1 0.0 0.9
11:34 17.0 16.9 99 1010.1 19.0 S 22.1 0.0 0.9
11:35 17.0 16.9 99 1010.5 15.2 SE 22.1 0.0 0.9
11:36 17.0 16.9 99 1010.2 11.4 S 22.1 0.0 0.9
11:37 17.0 16.9 99 1010.4 14.5 SW 22.1 0.0 0.9
11:38 17.0 16.9 99 1010.4 18.3 S 22.1 0.0 0.9
11:39 17.0 16.9 99 1010.4 18.3 S 22.1 0.0 0.9
11:40 17.0 16.9 99 1010.5 16.8 SW 22.1 0.0 0.9
11:41 17.0 16.9 99 1010.5 17.4 SSE 19.0 0.0 0.9
11:42 17.0 16.9 99 1010.5 17.4 SSE 19.0 0.0 0.9
11:43 17.0 16.9 99 1010.5 13.6 S 22.1 0.0 0.9
11:44 17.0 16.9 99 1010.5 15.2 SW 22.1 0.0 0.9
11:45 17.0 16.9 99 1010.5 13.6 WSW 22.1 0.0 0.9
11:46 17.0 16.9 99 1010.7 15.2 S 22.1 0.0 0.9
11:48 17.0 16.9 99 1010.5 15.9 S 22.1 0.0 0.9
11:49 17.0 16.9 99 1010.4 18.3 SW 22.1 0.0 0.9
11:50 17.0 16.9 99 1010.5 17.4 S 22.1 0.0 0.9
11:51 17.0 16.9 99 1010.5 16.8 S 22.1 0.0 0.9
11:52 17.0 16.9 99 1010.5 19.0 SW 22.1 0.0 0.9
11:53 17.1 17.0 99 1010.5 20.6 NW 20.6 0.0 0.9
11:54 17.0 16.9 99 1010.6 16.8 SW 20.6 0.0 0.9
11:55 17.1 17.0 99 1010.5 17.4 S 20.6 0.0 0.9
11:56 17.0 16.9 99 1010.5 19.7 S 20.6 0.0 0.9
11:57 17.1 17.0 99 1010.5 16.8 S 20.6 0.0 0.9
11:58 17.1 17.0 99 1010.6 15.2 SE 20.6 0.0 0.9
11:59 17.1 17.0 99 1010.6 13.6 S 20.6 0.0 0.9
12:00 17.1 17.0 99 1010.5 12.1 SSE 20.6 0.0 0.9
12:02 17.1 17.0 99 1010.6 19.0 S 20.6 0.0 0.9
12:03 17.1 17.0 99 1010.7 17.4 SE 20.6 0.0 0.9
12:04 17.1 17.0 99 1010.6 20.6 S 22.8 0.0 0.9
12:05 17.1 17.0 99 1010.7 19.7 S 22.8 0.0 0.9
12:06 17.1 17.0 99 1010.7 19.7 SW 22.8 0.0 0.9
12:07 17.1 17.0 99 1010.6 18.3 S 22.8 0.0 0.9
12:08 17.1 17.0 99 1010.7 21.3 S 22.8 0.0 0.9
12:09 17.1 17.0 99 1010.6 21.3 S 22.8 0.0 0.9
12:10 17.1 17.0 99 1010.6 21.3 S 22.8 0.0 0.9
12:11 17.1 17.0 99 1010.7 21.3 SW 22.8 0.0 0.9
12:12 17.1 17.0 99 1010.7 24.4 S 24.4 0.0 0.9
12:13 17.1 17.0 99 1010.7 17.4 S 24.4 0.0 0.9
12:14 17.1 17.0 99 1010.6 15.2 S 24.4 0.0 0.9
12:16 17.2 17.1 99 1010.5 14.5 S 24.4 0.0 0.9
12:17 17.2 17.1 99 1010.5 23.5 SW 24.4 0.0 0.9
12:18 17.2 17.1 99 1010.6 20.6 S 24.4 0.0 0.9
12:19 17.2 17.1 99 1010.6 15.2 S 24.4 0.0 0.9
12:20 17.2 17.1 99 1010.6 17.4 S 24.4 0.0 0.9
12:21 17.2 17.1 99 1010.4 19.7 SSW 24.4 0.0 0.9
12:22 17.2 17.1 99 1010.7 17.4 SE 23.5 0.0 0.9
12:23 17.3 17.2 99 1010.6 14.5 SW 23.5 0.0 0.9
12:24 17.3 17.2 99 1010.5 19.7 S 23.5 0.0 0.9
12:25 17.3 17.2 99 1010.6 19.7 S 23.5 0.0 0.9
12:26 17.3 17.2 99 1010.7 19.0 S 23.5 0.0 0.9
12:27 17.3 17.2 99 1010.5 24.4 S 24.4 0.0 0.9
12:28 17.3 17.2 99 1010.4 22.8 SW 24.4 0.0 0.9
12:29 17.3 17.2 99 1010.6 21.3 S 24.4 0.0 0.9
12:31 17.4 17.3 99 1010.5 20.6 S 24.4 0.0 0.9
12:32 17.4 17.3 99 1010.5 21.3 SW 24.4 0.0 0.9
12:33 17.4 17.3 99 1010.6 23.5 SW 24.4 0.0 0.9
12:34 17.4 17.3 99 1010.7 25.1 S 25.1 0.0 0.9
12:35 17.4 17.3 99 1010.8 21.3 S 25.1 0.0 0.9
12:36 17.4 17.3 99 1010.7 19.0 SSW 25.1 0.0 0.9
12:37 17.4 17.3 99 1010.7 15.2 WSW 25.1 0.0 0.9
12:38 17.4 17.3 99 1010.7 15.2 WSW 25.1 0.0 0.9
12:39 17.4 17.3 99 1010.6 19.0 SE 25.1 0.0 0.9
12:40 17.4 17.3 99 1010.6 12.1 S 25.1 0.0 0.9
12:41 17.4 17.3 99 1010.7 15.9 S 25.1 0.0 0.9
12:42 17.4 17.3 99 1010.7 15.9 SW 25.1 0.0 0.9
12:43 17.4 17.3 99 1010.7 21.3 SE 25.1 0.0 0.9
12:44 17.5 17.4 99 1010.5 18.3 SW 25.1 0.0 0.9
12:46 17.5 17.4 99 1010.7 19.7 S 22.1 0.0 0.9
12:47 17.4 17.3 99 1010.7 16.8 SW 21.3 0.0 0.9
12:48 17.5 17.4 99 1010.6 13.6 S 21.3 0.0 0.9
12:49 17.4 17.3 99 1010.6 14.5 SW 21.3 0.0 0.9
12:50 17.5 17.4 99 1010.7 18.3 S 21.3 0.0 0.9
12:51 17.5 17.4 99 1010.7 22.1 SW 22.1 0.0 0.9
12:52 17.4 17.3 99 1010.7 15.9 S 22.1 0.0 0.9
12:53 17.5 17.4 99 1010.8 9.8 S 22.1 0.0 0.9
12:54 17.5 17.4 99 1010.8 9.8 S 22.1 0.0 0.9
12:55 17.4 17.3 99 1010.8 16.8 SW 22.1 0.0 0.9
12:56 17.4 17.3 99 1010.7 19.0 S 22.1 0.0 0.9
12:57 17.4 17.3 99 1010.8 18.3 S 22.1 0.0 0.9
12:58 17.4 17.3 99 1010.7 21.3 S 22.1 0.0 0.9
13:00 17.3 17.2 99 1010.8 18.3 SW 22.1 0.0 0.9
13:01 17.4 17.3 99 1010.8 18.3 SW 22.1 0.0 0.9
13:02 17.3 17.2 99 1010.7 17.4 E 22.1 0.0 0.9
13:03 17.3 17.2 99 1010.7 19.0 WNW 22.1 0.0 0.9
13:04 17.3 17.2 99 1010.8 15.2 SE 22.1 0.0 0.9
13:05 17.3 17.2 99 1010.7 20.6 SE 22.1 0.0 0.9
13:06 17.3 17.2 99 1010.6 15.2 SW 22.1 0.0 0.9
13:07 17.2 17.1 99 1010.7 15.9 S 22.1 0.0 0.9
13:08 17.2 17.1 99 1010.6 24.4 SW 24.4 0.0 0.9
13:09 17.2 17.1 99 1010.6 24.4 SW 24.4 0.0 0.9
13:10 17.2 17.1 99 1010.7 17.4 S 24.4 0.0 0.9
13:11 17.2 17.1 99 1010.6 22.8 S 24.4 0.0 0.9
13:12 17.2 17.1 99 1010.7 19.7 SW 24.4 0.0 0.9
13:13 17.2 17.1 99 1010.7 19.7 SW 24.4 0.0 0.9
13:14 17.2 17.1 99 1010.7 16.8 SE 24.4 0.0 0.9
13:15 17.2 17.1 99 1010.7 19.7 S 24.4 0.0 0.9
13:16 17.2 17.1 99 1010.6 18.3 S 24.4 0.0 0.9
13:17 17.2 17.1 99 1010.7 15.9 SE 24.4 0.0 0.9
13:18 17.2 17.1 99 1010.7 18.3 S 24.4 0.0 0.9
13:20 17.2 17.1 99 1010.8 13.6 S 22.8 0.0 0.9
13:21 17.2 17.1 99 1010.7 19.7 S 19.7 0.0 0.9
13:22 17.2 17.1 99 1011.0 17.4 S 19.7 0.0 0.9
13:23 17.2 17.1 99 1010.8 21.3 S 21.3 0.0 0.9
13:24 17.2 17.1 99 1010.8 15.2 S 21.3 0.0 0.9
13:25 17.2 17.1 99 1010.7 16.8 SW 21.3 0.0 0.9
13:26 17.2 17.1 99 1010.7 15.9 S 21.3 0.0 0.9
13:27 17.2 17.1 99 1010.8 18.3 S 21.3 0.0 0.9
13:28 17.2 17.1 99 1010.7 19.7 SE 21.3 0.0 0.9
13:29 17.2 17.1 99 1010.7 21.3 SE 21.3 0.0 0.9
13:30 17.2 17.1 99 1010.7 20.6 S 21.3 0.0 0.9
13:31 17.2 17.1 99 1010.7 13.6 SW 21.3 0.0 0.9
13:32 17.2 17.1 99 1010.7 17.4 S 21.3 0.0 0.9
13:34 17.2 17.1 99 1010.8 17.4 S 21.3 0.0 0.9
13:35 17.2 17.1 99 1010.8 15.9 S 21.3 0.0 0.9
13:36 17.2 17.1 99 1010.8 11.4 SSW 21.3 0.0 0.9
13:37 17.2 17.1 99 1010.8 13.6 SW 21.3 0.0 0.9
13:38 17.2 17.1 99 1010.8 16.8 SW 21.3 0.0 0.9
13:39 17.2 17.1 99 1010.7 19.7 SW 20.6 0.0 0.9
13:40 17.2 17.1 99 1010.8 15.2 SW 19.7 0.0 0.9
13:41 17.2 17.1 99 1010.7 12.1 S 21.3 0.0 0.9
13:42 17.2 17.1 99 1010.7 12.1 S 21.3 0.0 0.9
13:43 17.2 17.1 99 1010.7 13.6 SSW 21.3 0.0 0.9
13:44 17.2 17.1 99 1010.8 10.7 SW 21.3 0.0 0.9
13:45 17.2 17.1 99 1010.9 16.8 S 21.3 0.0 0.9
13:46 17.2 17.1 99 1010.9 17.4 SW 22.8 0.0 0.9
13:47 17.2 17.1 99 1010.7 16.8 SW 22.8 0.0 0.9
13:49 17.2 17.1 99 1010.8 23.5 SW 23.5 0.0 0.9
13:50 17.2 17.1 99 1010.8 18.3 SSW 23.5 0.0 0.9
13:51 17.2 17.1 99 1011.0 19.7 SW 23.5 0.0 0.9
13:52 17.3 17.2 99 1010.8 18.3 S 23.5 0.0 0.9
13:53 17.3 17.2 99 1010.8 22.8 SW 23.5 0.0 0.9
13:54 17.3 17.2 99 1010.8 18.3 S 23.5 0.0 0.9
13:55 17.3 17.2 99 1010.8 15.9 S 23.5 0.0 0.9
13:56 17.3 17.2 99 1010.8 16.8 S 23.5 0.0 0.9
13:57 17.3 17.2 99 1010.8 16.8 S 23.5 0.0 0.9
13:58 17.3 17.2 99 1010.8 16.8 SW 23.5 0.0 0.9
13:59 17.3 17.2 99 1010.9 18.3 S 22.8 0.0 0.9
14:00 17.3 17.2 99 1010.9 19.0 S 22.8 0.0 0.9
14:01 17.3 17.2 99 1010.7 16.8 SW 22.8 0.0 0.9
14:02 17.3 17.2 99 1010.8 17.4 SSW 22.8 0.0 0.9
14:03 17.3 17.2 99 1010.9 19.7 S 22.8 0.0 0.9
14:04 17.4 17.3 99 1010.9 18.3 SW 20.6 0.0 0.9
14:05 17.4 17.3 99 1010.9 18.3 SW 20.6 0.0 0.9
14:06 17.4 17.3 99 1010.9 15.2 WSW 20.6 0.0 0.9
14:07 17.4 17.3 99 1010.9 21.3 SW 21.3 0.0 0.9
14:08 17.4 17.3 99 1010.8 17.4 SW 21.3 0.0 0.9
14:09 17.4 17.3 99 1010.9 17.4 SW 21.3 0.0 0.9
14:10 17.4 17.3 99 1010.9 21.3 SW 21.3 0.0 0.9
14:11 17.4 17.3 99 1011.0 19.7 SW 21.3 0.0 0.9
14:12 17.5 17.4 99 1010.9 19.0 S 21.3 0.0 0.9
14:13 17.5 17.4 99 1010.9 22.8 S 22.8 0.0 0.9
14:14 17.5 17.4 99 1010.9 18.3 SE 22.8 0.0 0.9
14:15 17.5 17.4 99 1011.0 22.8 S 22.8 0.0 0.9
14:16 17.5 17.4 99 1011.0 20.6 S 22.8 0.0 0.9
14:17 17.5 17.4 99 1010.9 22.8 S 23.5 0.0 0.9
14:18 17.5 17.4 99 1011.0 19.0 SE 23.5 0.0 0.9
14:19 17.5 17.4 99 1010.8 18.3 S 23.5 0.0 0.9
14:20 17.6 17.5 99 1010.8 21.3 NE 23.5 0.0 0.9
14:21 17.6 17.5 99 1011.0 18.3 SW 24.4 0.0 0.9
14:22 17.6 17.5 99 1010.8 15.2 SSW 24.4 0.0 0.9
14:23 17.6 17.5 99 1010.9 15.9 S 24.4 0.0 0.9
14:24 17.6 17.5 99 1010.9 21.3 S 24.4 0.0 0.9
14:25 17.6 17.5 99 1010.9 21.3 S 24.4 0.0 0.9
14:26 17.7 17.6 99 1011.0 21.3 S 24.4 0.0 0.9
14:27 17.7 17.6 99 1010.8 18.3 S 24.4 0.0 0.9
14:28 17.7 17.6 99 1010.9 20.6 SW 24.4 0.0 0.9
14:29 17.7 17.6 99 1010.8 17.4 S 24.4 0.0 0.9
14:30 17.8 17.7 99 1010.9 18.3 SW 24.4 0.0 0.9
14:31 17.8 17.7 99 1011.0 15.2 NE 21.3 0.0 0.9
14:32 18.0 17.9 99 1011.0 13.6 S 21.3 0.0 0.9
14:33 18.0 17.9 99 1010.8 16.8 S 21.3 0.0 0.9
14:34 18.1 18.0 99 1010.9 15.9 S 21.3 0.0 0.9
14:35 18.1 18.0 99 1010.9 20.6 SE 21.3 0.0 0.9
14:36 18.2 18.1 99 1011.0 28.2 SW 28.2 0.0 0.9
14:37 18.2 18.1 99 1010.9 22.8 SW 28.2 0.0 0.9
14:38 18.3 18.2 99 1010.8 19.7 SE 28.2 0.0 0.9
14:39 18.3 18.2 99 1011.1 20.6 ESE 28.2 0.0 0.9
14:40 18.3 18.2 99 1010.8 15.9 S 28.2 0.0 0.9
14:41 18.4 18.3 99 1010.9 17.4 SW 28.2 0.0 0.9
14:42 18.5 18.4 99 1010.9 15.9 SW 28.2 0.0 0.9
14:43 18.5 18.4 99 1010.9 22.1 SE 28.2 0.0 0.9
14:44 18.5 18.4 99 1011.0 14.5 S 28.2 0.0 0.9
14:45 18.5 18.4 99 1011.0 20.6 S 28.2 0.0 0.9
14:46 18.5 18.4 99 1011.0 15.9 S 28.2 0.0 0.9
14:47 18.5 18.4 99 1010.9 21.3 S 22.8 0.0 0.9
14:48 18.6 18.5 99 1010.9 22.1 SE 22.1 0.0 0.9
14:49 18.6 18.5 99 1010.9 20.6 S 22.1 0.0 0.9
14:50 18.6 18.5 99 1010.9 18.3 S 22.1 0.0 0.9
14:51 18.6 18.5 99 1011.1 14.5 S 22.1 0.0 0.9
14:52 18.6 18.5 99 1011.0 22.1 S 22.1 0.0 0.9
14:53 18.6 18.5 99 1011.0 22.1 S 22.1 0.0 0.9
14:54 18.6 18.5 99 1010.9 17.4 S 22.1 0.0 0.9
14:55 18.6 18.5 99 1011.0 22.1 NW 22.1 0.0 0.9
14:56 18.6 18.5 99 1011.0 19.7 S 22.1 0.0 0.9
14:57 18.6 18.5 99 1010.9 22.1 S 22.1 0.0 0.9
14:58 18.5 18.4 99 1011.0 16.8 SW 22.1 0.0 0.9
15:00 18.5 18.4 99 1011.0 17.4 SW 22.1 0.0 0.9
15:01 18.5 18.4 99 1010.9 19.0 S 22.1 0.0 0.9
15:02 18.5 18.4 99 1010.9 19.0 S 22.1 0.0 0.9
15:03 18.5 18.4 99 1011.1 17.4 S 22.1 0.0 0.9
15:04 18.6 18.5 99 1010.9 27.3 WNW 27.3 0.0 0.9
15:05 18.5 18.4 99 1010.9 16.8 S 27.3 0.0 0.9
15:06 18.4 18.3 99 1011.0 19.0 S 27.3 0.0 0.9
15:07 18.5 18.4 99 1010.9 19.7 S 27.3 0.0 0.9
15:08 18.4 18.3 99 1011.3 15.9 S 27.3 0.0 0.9
15:09 18.4 18.3 99 1011.0 15.9 S 27.3 0.0 0.9
15:10 18.4 18.3 99 1011.0 18.3 SW 27.3 0.0 0.9
15:11 18.3 18.2 99 1010.9 17.4 S 27.3 0.0 0.9
15:12 18.3 18.2 99 1010.9 17.4 S 27.3 0.0 0.9
15:13 18.3 18.2 99 1010.9 19.7 SW 27.3 0.0 0.9
15:14 18.3 18.2 99 1011.0 23.5 SW 27.3 0.0 0.9
15:15 18.3 18.2 99 1011.1 19.7 SE 23.5 0.0 0.9
15:16 18.3 18.2 99 1011.1 20.6 S 23.5 0.0 0.9
15:17 18.3 18.2 99 1011.0 19.0 SSW 23.5 0.0 0.9
15:18 18.3 18.2 99 1011.0 19.7 SW 23.5 0.0 0.9
15:19 18.3 18.2 99 1010.9 21.3 S 23.5 0.0 0.9
15:20 18.2 18.1 99 1010.9 19.0 S 23.5 0.0 0.9
15:21 18.2 18.1 99 1011.1 20.6 S 23.5 0.0 0.9
15:22 18.2 18.1 99 1010.9 19.7 S 23.5 0.0 0.9
15:23 18.2 18.1 99 1011.0 19.0 S 23.5 0.0 0.9
15:24 18.2 18.1 99 1010.8 13.6 S 22.1 0.0 0.9
15:25 18.2 18.1 99 1010.8 21.3 SE 22.1 0.0 0.9
15:26 18.2 18.1 99 1011.0 20.6 S 22.1 0.0 0.9
15:27 18.2 18.1 99 1010.9 16.8 S 22.1 0.0 0.9
15:28 18.1 18.0 99 1011.0 25.9 S 25.9 0.0 0.9
15:29 18.1 18.0 99 1011.0 16.8 S 25.9 0.0 0.9
15:30 18.1 18.0 99 1010.8 19.0 SE 25.9 0.0 0.9
15:31 18.1 18.0 99 1010.8 17.4 S 25.9 0.0 0.9
15:32 18.1 18.0 99 1011.0 19.0 SW 25.9 0.0 0.9
15:33 18.1 18.0 99 1010.9 19.7 S 25.9 0.0 0.9
15:34 18.1 18.0 99 1010.9 21.3 SW 25.9 0.0 0.9
15:35 18.1 18.0 99 1010.9 23.5 S 25.9 0.0 0.9
15:36 18.1 18.0 99 1010.8 18.3 SW 25.9 0.0 0.9
15:38 18.1 18.0 99 1010.9 18.3 SE 25.9 0.0 0.9
15:39 18.0 17.9 99 1010.8 21.3 S 23.5 0.0 0.9
15:40 18.0 17.9 99 1010.9 19.7 SE 23.5 0.0 0.9
15:41 18.0 17.9 99 1010.9 20.6 S 23.5 0.0 0.9
15:42 18.0 17.9 99 1010.9 16.8 SE 23.5 0.0 0.9
15:43 18.0 17.9 99 1010.9 13.0 SE 23.5 0.0 0.9
15:44 17.9 17.8 99 1010.9 18.3 SE 23.5 0.0 0.9
15:45 17.9 17.8 99 1010.9 19.0 SW 23.5 0.0 0.9
15:46 17.9 17.8 99 1010.9 19.0 S 21.3 0.0 0.9
15:47 17.9 17.8 99 1011.0 15.2 S 21.3 0.0 0.9
15:48 17.9 17.8 99 1010.9 17.4 NW 21.3 0.0 0.9
15:49 17.9 17.8 99 1010.8 16.8 SW 21.3 0.0 0.9
15:50 17.9 17.8 99 1010.8 21.3 S 22.1 0.0 0.9
15:51 17.9 17.8 99 1010.9 20.6 S 22.1 0.0 0.9
15:52 17.8 17.7 99 1011.0 19.0 SE 22.1 0.0 0.9
15:53 17.8 17.7 99 1010.9 16.8 SE 22.1 0.0 0.9
15:54 17.8 17.7 99 1010.8 18.3 S 22.1 0.0 0.9
15:55 17.8 17.7 99 1011.0 19.7 SE 22.1 0.0 0.9
15:56 17.7 17.6 99 1010.8 18.3 S 22.1 0.0 0.9
15:57 17.8 17.7 99 1010.9 19.0 SE 22.1 0.0 0.9
15:58 17.8 17.7 99 1010.8 18.3 S 22.1 0.0 0.9
15:59 17.8 17.7 99 1011.0 19.0 S 22.1 0.0 0.9
16:00 17.8 17.7 99 1010.8 17.4 S 21.3 0.0 0.9
16:01 17.8 17.7 99 1011.1 19.0 S 20.6 0.0 0.9
16:02 17.8 17.7 99 1010.8 20.6 SW 20.6 0.0 0.9
16:03 17.8 17.7 99 1010.8 17.4 SSW 20.6 0.0 0.9
16:04 17.8 17.7 99 1010.8 15.9 S 20.6 0.0 0.9
16:06 17.8 17.7 99 1010.8 19.0 S 20.6 0.0 0.9
16:07 17.8 17.7 99 1010.8 14.5 S 20.6 0.0 0.9
16:08 17.7 17.6 99 1010.8 22.1 SW 22.1 0.0 0.9
16:09 17.7 17.6 99 1010.9 22.1 SW 22.1 0.0 0.9
16:10 17.7 17.6 99 1010.9 14.5 SW 22.1 0.0 0.9
16:11 17.7 17.6 99 1010.8 16.8 E 22.1 0.0 0.9
16:12 17.7 17.6 99 1010.8 16.8 ESE 22.1 0.0 0.9
16:13 17.7 17.6 99 1010.8 16.8 ESE 22.1 0.0 0.9
16:14 17.7 17.6 99 1010.8 19.7 S 22.1 0.0 0.9
16:15 17.7 17.6 99 1010.8 22.8 S 22.8 0.0 0.9
16:16 17.7 17.6 99 1010.6 16.8 SSE 22.8 0.0 0.9
16:17 17.7 17.6 99 1010.6 19.0 SSW 22.8 0.0 0.9
16:18 17.7 17.6 99 1010.8 19.7 S 22.8 0.0 0.9
16:19 17.7 17.6 99 1010.7 21.3 SE 22.8 0.0 0.9
16:20 17.7 17.6 99 1010.9 22.1 S 22.8 0.0 0.9
16:21 17.7 17.6 99 1010.9 27.3 SW 27.3 0.0 0.9
16:22 17.7 17.6 99 1010.9 20.6 SW 27.3 0.0 0.9
16:23 17.7 17.6 99 1010.7 19.7 S 27.3 0.0 0.9
16:24 17.6 17.5 99 1010.8 13.0 WSW 27.3 0.0 0.9
16:25 17.6 17.5 99 1010.8 17.4 S 27.3 0.0 0.9
16:26 17.7 17.6 99 1011.0 22.1 S 27.3 0.0 0.9
16:27 17.6 17.5 99 1010.8 19.0 S 27.3 0.0 0.9
16:28 17.6 17.5 99 1010.8 14.5 SW 27.3 0.0 0.9
16:29 17.6 17.5 99 1010.8 20.6 S 27.3 0.0 0.9
16:30 17.6 17.5 99 1010.8 19.7 S 27.3 0.0 0.9
16:31 17.6 17.5 99 1010.8 14.5 SW 27.3 0.0 0.9
16:32 17.6 17.5 99 1010.8 19.7 S 22.1 0.0 0.9
16:33 17.6 17.5 99 1010.8 16.8 S 22.1 0.0 0.9
16:34 17.6 17.5 99 1010.8 22.8 S 22.8 0.0 0.9
16:35 17.6 17.5 99 1010.9 23.5 S 23.5 0.0 0.9
16:36 17.6 17.5 99 1010.9 22.8 S 23.5 0.0 0.9
16:37 17.6 17.5 99 1010.7 24.4 SE 24.4 0.0 0.9
16:38 17.6 17.5 99 1011.0 22.1 SE 24.4 0.0 0.9
16:39 17.5 17.4 99 1010.9 21.3 NW 24.4 0.0 0.9
16:40 17.5 17.4 99 1010.8 16.8 S 24.4 0.0 0.9
16:41 17.5 17.4 99 1010.8 16.8 S 24.4 0.0 0.9
16:42 17.5 17.4 99 1010.7 19.7 SW 24.4 0.0 0.9
16:43 17.5 17.4 99 1010.7 19.7 S 24.4 0.0 0.9
16:44 17.5 17.4 99 1010.9 22.8 S 24.4 0.0 0.9
16:45 17.5 17.4 99 1010.9 19.0 S 24.4 0.0 0.9
16:46 17.5 17.4 99 1010.9 15.9 S 24.4 0.0 0.9
16:47 17.5 17.4 99 1011.0 22.8 SW 24.4 0.0 0.9
16:48 17.5 17.4 99 1011.0 20.6 S 22.8 0.0 0.9
16:49 17.5 17.4 99 1010.9 19.0 S 22.8 0.0 0.9
16:50 17.5 17.4 99 1011.0 21.3 S 22.8 0.0 0.9
16:51 17.5 17.4 99 1010.9 15.9 SE 22.8 0.0 0.9
16:52 17.5 17.4 99 1011.0 13.0 SE 22.8 0.0 0.9
16:53 17.5 17.4 99 1010.9 19.7 SSE 22.8 0.0 0.9
16:54 17.5 17.4 99 1010.9 13.0 S 22.8 0.0 0.9
16:55 17.5 17.4 99 1010.8 22.8 S 22.8 0.0 0.9
16:56 17.5 17.4 99 1011.2 20.6 SSW 22.8 0.0 0.9
16:57 17.5 17.4 99 1011.0 19.7 S 22.8 0.0 0.9
16:58 17.5 17.4 99 1011.0 15.9 SE 22.8 0.0 0.9
16:59 17.5 17.4 99 1010.9 22.8 S 22.8 0.0 0.9
17:00 17.5 17.4 99 1010.9 18.3 S 22.8 0.0 0.9
17:01 17.5 17.4 99 1010.9 23.5 SSW 23.5 0.0 0.9
17:02 17.4 17.3 99 1011.1 24.4 S 24.4 0.0 0.9
17:03 17.4 17.3 99 1011.0 25.1 SSW 25.1 0.0 0.9
17:04 17.4 17.3 99 1011.0 18.3 S 25.1 0.0 0.9
17:05 17.4 17.3 99 1010.9 17.4 S 25.1 0.0 0.9
17:06 17.4 17.3 99 1010.9 24.4 SSE 25.1 0.0 0.9
17:07 17.4 17.3 99 1011.0 19.7 S 25.1 0.0 0.9
17:08 17.4 17.3 99 1011.0 14.5 S 25.1 0.0 0.9
17:09 17.4 17.3 99 1011.0 14.5 S 25.1 0.0 0.9
17:10 17.4 17.3 99 1011.1 19.0 SE 25.1 0.0 0.9
17:11 17.4 17.3 99 1011.1 25.9 S 25.9 0.0 0.9
17:12 17.4 17.3 99 1011.1 21.3 SSW 25.9 0.0 0.9
17:13 17.4 17.3 99 1010.9 19.7 S 25.9 0.0 0.9
17:14 17.3 17.2 99 1011.2 18.3 SE 25.9 0.0 0.9
17:15 17.3 17.2 99 1011.0 19.7 SE 25.9 0.0 0.9
17:16 17.3 17.2 99 1011.0 18.3 WSW 25.9 0.0 0.9
17:17 17.3 17.2 99 1011.3 15.9 S 25.9 0.0 0.9
17:18 17.3 17.2 99 1010.9 17.4 S 25.9 0.0 0.9
17:19 17.3 17.2 99 1010.9 16.8 SE 25.9 0.0 0.9
17:20 17.3 17.2 99 1011.0 19.7 S 25.9 0.0 0.9
17:21 17.3 17.2 99 1011.0 19.0 S 25.9 0.0 0.9
17:22 17.3 17.2 99 1011.0 18.3 SE 21.3 0.0 0.9
17:23 17.2 17.1 99 1011.0 16.8 S 20.6 0.0 0.9
17:24 17.2 17.1 99 1011.1 16.8 SE 20.6 0.0 0.9
17:25 17.2 17.1 99 1011.1 15.9 S 20.6 0.0 0.9
17:26 17.2 17.1 99 1010.9 19.7 S 20.6 0.0 0.9
17:27 17.2 17.1 99 1011.1 19.7 S 20.6 0.0 0.9
17:28 17.2 17.1 99 1011.1 19.7 S 20.6 0.0 0.9
17:29 17.2 17.1 99 1011.1 13.0 S 20.6 0.0 0.9
17:30 17.2 17.1 99 1011.0 20.6 S 20.6 0.0 0.9
17:31 17.2 17.1 99 1011.1 15.9 S 20.6 0.0 0.9
17:32 17.2 17.1 99 1011.1 19.7 S 20.6 0.0 0.9
17:33 17.2 17.1 99 1011.1 19.0 SSW 20.6 0.0 0.9
17:34 17.1 17.0 99 1011.1 17.4 SW 20.6 0.0 0.9
17:35 17.1 17.0 99 1011.1 18.3 S 20.6 0.0 0.9
17:36 17.1 17.0 99 1010.9 16.8 SW 20.6 0.0 0.9
17:37 17.1 17.0 99 1011.0 25.9 S 25.9 0.0 0.9
17:38 17.1 17.0 99 1010.9 20.6 S 25.9 0.0 0.9
17:39 17.0 16.9 99 1011.0 16.8 SE 25.9 0.0 0.9
17:40 17.1 17.0 99 1010.9 14.5 S 25.9 0.0 0.9
17:41 17.0 16.9 99 1011.1 20.6 SSW 25.9 0.0 0.9
17:42 17.1 17.0 99 1010.9 22.8 SE 25.9 0.0 0.9
17:43 17.0 16.9 99 1011.0 17.4 S 25.9 0.0 0.9
17:44 17.0 16.9 99 1011.0 19.0 S 25.9 0.0 0.9
17:45 17.0 16.9 99 1011.1 15.9 S 25.9 0.0 0.9
17:46 17.0 16.9 99 1011.0 22.8 SW 25.9 0.0 0.9
17:47 17.0 16.9 99 1011.1 15.9 SE 25.9 0.0 0.9
17:48 17.0 16.9 99 1010.9 19.0 S 25.1 0.0 0.9
17:49 17.0 16.9 99 1010.9 15.9 S 25.1 0.0 0.9
17:50 17.0 16.9 99 1011.0 14.5 S 25.1 0.0 0.9
17:51 17.0 16.9 99 1011.0 13.0 S 25.1 0.0 0.9
17:52 17.0 16.9 99 1011.0 14.5 S 25.1 0.0 0.9
17:53 17.0 16.9 99 1011.0 13.6 S 25.1 0.0 0.9
17:54 17.0 16.9 99 1010.9 22.8 S 25.1 0.0 0.9
17:55 17.0 16.9 99 1011.0 21.3 S 25.1 0.0 0.9
17:56 17.0 16.9 99 1010.9 15.2 SE 22.8 0.0 0.9
17:57 17.0 16.9 99 1010.9 15.2 SE 22.8 0.0 0.9
17:58 17.0 16.9 99 1011.2 15.2 S 22.8 0.0 0.9
17:59 17.0 16.9 99 1010.9 21.3 S 22.8 0.0 0.9
18:00 17.0 16.9 99 1011.1 13.6 SW 22.8 0.0 0.9
18:01 17.0 16.9 99 1011.0 18.3 SE 22.8 0.0 0.9
18:02 17.0 16.9 99 1011.0 17.4 SE 22.8 0.0 0.9
18:03 17.0 16.9 99 1010.9 15.2 SW 22.8 0.0 0.9
18:04 16.9 16.8 99 1010.8 16.8 SE 22.8 0.0 0.9
18:05 17.0 16.9 99 1010.9 13.6 S 21.3 0.0 0.9
18:06 16.9 16.8 99 1011.0 15.9 SE 21.3 0.0 0.9
18:07 17.0 16.9 99 1010.8 15.2 SE 21.3 0.0 0.9
18:08 16.9 16.8 99 1011.0 18.3 S 21.3 0.0 0.9
18:09 16.9 16.8 99 1011.0 18.3 S 19.0 0.0 0.9
18:10 17.0 16.9 99 1010.8 20.6 SE 20.6 0.0 0.9
18:11 16.9 16.8 99 1011.2 16.8 SE 20.6 0.0 0.9
18:12 16.9 16.8 99 1011.0 20.6 S 20.6 0.0 0.9
18:13 16.9 16.8 99 1010.8 14.5 S 20.6 0.0 0.9
18:14 16.9 16.8 99 1011.0 16.8 SE 20.6 0.0 0.9
18:15 16.9 16.8 99 1010.8 14.5 SW 20.6 0.0 0.9
18:16 16.9 16.8 99 1010.9 19.0 SE 20.6 0.0 0.9
18:17 16.9 16.8 99 1010.8 17.4 S 20.6 0.0 0.9
18:18 16.9 16.8 99 1010.8 16.8 SE 20.6 0.0 0.9
18:19 16.9 16.8 99 1010.8 19.7 S 20.6 0.0 0.9
18:20 16.9 16.8 99 1010.8 19.0 SE 20.6 0.0 0.9
18:21 16.9 16.8 99 1010.6 15.2 S 20.6 0.0 0.9
18:22 16.9 16.8 99 1010.8 17.4 S 19.7 0.0 0.9
18:23 16.9 16.8 99 1010.8 19.0 S 19.7 0.0 0.9
18:24 16.9 16.8 99 1010.6 15.9 S 21.3 0.0 0.9
18:25 16.9 16.8 99 1010.6 15.9 S 21.3 0.0 0.9
18:26 16.9 16.8 99 1010.9 19.7 S 21.3 0.0 0.9
18:27 16.9 16.8 99 1010.8 19.0 S 21.3 0.0 0.9
18:28 16.9 16.8 99 1010.9 18.3 SSW 21.3 0.0 0.9
18:29 16.9 16.8 99 1010.9 21.3 S 21.3 0.0 0.9
18:30 16.9 16.8 99 1011.0 19.0 SE 22.1 0.0 0.9
18:31 16.9 16.8 99 1010.9 20.6 S 22.1 0.0 0.9
18:32 16.9 16.8 99 1010.9 14.5 S 22.1 0.0 0.9
18:33 16.9 16.8 99 1010.8 16.8 S 22.1 0.0 0.9
18:34 16.9 16.8 99 1010.9 16.8 SW 22.1 0.0 0.9
18:35 16.9 16.8 99 1010.9 20.6 S 22.1 0.0 0.9
18:36 16.9 16.8 99 1011.0 23.5 S 23.5 0.0 0.9
18:37 16.9 16.8 99 1010.8 20.6 SW 23.5 0.0 0.9
18:38 16.9 16.8 99 1010.9 16.8 S 23.5 0.0 0.9
18:39 16.9 16.8 99 1010.8 19.7 S 23.5 0.0 0.9
18:40 16.9 16.8 99 1010.7 18.3 S 23.5 0.0 0.9
18:41 16.9 16.8 99 1010.8 15.9 SW 23.5 0.0 0.9
18:42 16.9 16.8 99 1010.7 16.8 SW 23.5 0.0 0.9
18:43 16.9 16.8 99 1010.7 16.8 SE 23.5 0.0 0.9
18:44 16.9 16.8 99 1010.8 17.4 SE 23.5 0.0 0.9
18:45 16.9 16.8 99 1010.8 17.4 S 23.5 0.0 0.9
18:46 16.9 16.8 99 1010.8 15.9 S 25.1 0.0 0.9
18:47 16.9 16.8 99 1010.6 15.2 S 25.1 0.0 0.9
18:48 16.9 16.8 99 1010.8 16.8 S 25.1 0.0 0.9
18:49 16.9 16.8 99 1010.8 17.4 SW 25.1 0.0 0.9
18:50 16.9 16.8 99 1010.9 15.9 S 25.1 0.0 0.9
18:51 16.9 16.8 99 1010.8 19.7 SE 25.1 0.0 0.9
18:52 16.9 16.8 99 1010.8 19.7 SE 25.1 0.0 0.9
18:53 16.9 16.8 99 1010.7 22.1 SE 25.1 0.0 0.9
18:54 16.9 16.8 99 1010.8 19.0 SW 25.1 0.0 0.9
18:55 16.9 16.8 99 1010.6 17.4 SSE 25.1 0.0 0.9
18:56 16.9 16.8 99 1010.8 17.4 S 22.1 0.0 0.9
18:57 16.9 16.8 99 1010.8 19.0 S 22.1 0.0 0.9
18:58 16.9 16.8 99 1010.7 18.3 SE 22.1 0.0 0.9
18:59 16.9 16.8 99 1010.7 17.4 S 22.1 0.0 0.9
19:00 16.8 16.7 99 1010.7 17.4 S 22.1 0.0 0.9
19:01 16.8 16.7 99 1010.8 15.2 S 22.1 0.0 0.9
19:02 16.8 16.7 99 1010.8 19.0 S 22.1 0.0 0.9
19:03 16.8 16.7 99 1010.8 19.0 SW 22.1 0.0 0.9
19:04 16.8 16.7 99 1010.7 19.7 SW 21.3 0.0 0.9
19:05 16.8 16.7 99 1010.7 15.9 S 21.3 0.0 0.9
19:06 16.8 16.7 99 1010.8 15.2 SE 21.3 0.0 0.9
19:07 16.8 16.7 99 1010.9 19.7 S 21.3 0.0 0.9
19:08 16.8 16.7 99 1010.9 22.1 S 22.1 0.0 0.9
19:09 16.8 16.7 99 1010.9 22.1 S 22.1 0.0 0.9
19:10 16.8 16.7 99 1010.9 22.1 S 22.1 0.0 0.9
19:11 16.8 16.7 99 1010.9 22.1 S 22.1 0.0 0.9
19:12 16.8 16.7 99 1010.9 22.1 S 22.1 0.0 0.9
19:13 16.8 16.7 99 1010.9 22.1 S 22.1 0.0 0.9
19:14 16.8 16.7 99 1011.2 21.3 SW 22.1 0.0 0.9
19:15 16.8 16.7 99 1011.2 26.6 S 26.6 0.0 0.9
19:16 16.8 16.7 99 1010.9 19.0 S 26.6 0.0 0.9
19:17 16.8 16.7 99 1011.0 15.2 NW 26.6 0.0 0.9
19:18 16.8 16.7 99 1010.9 12.1 SE 26.6 0.0 0.9
19:19 16.8 16.7 99 1010.9 18.3 S 26.6 0.0 0.9
19:21 16.8 16.7 99 1010.8 19.0 SE 26.6 0.0 0.9
19:22 16.8 16.7 99 1010.9 19.7 S 26.6 0.0 0.9
19:23 16.8 16.7 99 1010.8 20.6 S 26.6 0.0 0.9
19:24 16.8 16.7 99 1010.8 22.1 SE 26.6 0.0 0.9
19:25 16.8 16.7 99 1010.6 19.0 S 26.6 0.0 0.9
19:26 16.8 16.7 99 1010.8 19.7 SE 22.1 0.0 0.9
19:27 16.8 16.7 99 1010.8 14.5 SW 22.1 0.0 0.9
19:28 16.8 16.7 99 1010.8 18.3 S 22.1 0.0 0.9
19:29 16.8 16.7 99 1010.8 21.3 S 22.1 0.0 0.9
19:30 16.8 16.7 99 1010.8 19.0 S 22.1 0.0 0.9
19:31 16.8 16.7 99 1010.9 22.8 S 25.1 0.0 0.9
19:32 16.7 16.6 99 1011.0 26.6 S 26.6 0.0 0.9
19:33 16.8 16.7 99 1010.7 23.5 S 26.6 0.0 0.9
19:35 16.7 16.6 99 1010.8 18.3 S 26.6 0.0 0.9
19:36 16.7 16.6 99 1011.0 15.9 SW 26.6 0.0 0.9
19:37 16.7 16.6 99 1010.8 22.1 S 26.6 0.0 0.9
19:38 16.8 16.7 99 1010.8 18.3 SE 26.6 0.0 0.9
19:39 16.7 16.6 99 1010.8 19.0 S 26.6 0.0 0.9
19:40 16.7 16.6 99 1010.8 19.7 S 26.6 0.0 0.9
19:41 16.7 16.6 99 1010.6 22.8 SE 26.6 0.0 0.9
19:42 16.7 16.6 99 1010.7 20.6 SE 26.6 0.0 0.9
19:43 16.7 16.6 99 1010.8 21.3 NE 22.8 0.0 0.9
19:44 16.7 16.6 99 1010.7 17.4 SSE 22.8 0.0 0.9
19:45 16.7 16.6 99 1010.7 17.4 S 22.8 0.0 0.9
19:46 16.7 16.6 99 1011.1 19.0 SE 22.8 0.0 0.9
19:47 16.7 16.6 99 1010.8 15.2 SE 22.8 0.0 0.9
19:49 16.7 16.6 99 1010.7 18.3 S 22.8 0.0 0.9
19:50 16.7 16.6 99 1010.8 19.7 SSW 22.8 0.0 0.9
19:51 16.7 16.6 99 1010.9 16.8 S 22.8 0.0 0.9
19:52 16.7 16.6 99 1010.8 20.6 S 21.3 0.0 0.9
19:53 16.7 16.6 99 1010.8 21.3 S 21.3 0.0 0.9
19:54 16.7 16.6 99 1010.8 15.9 S 21.3 0.0 0.9
19:55 16.7 16.6 99 1010.8 19.0 S 21.3 0.0 0.9
19:56 16.7 16.6 99 1010.8 17.4 S 21.3 0.0 0.9
19:57 16.7 16.6 99 1010.8 15.2 SW 21.3 0.0 0.9
19:58 16.7 16.6 99 1010.8 18.3 S 21.3 0.0 0.9
19:59 16.7 16.6 99 1010.8 16.8 SSW 21.3 0.0 0.9
20:00 16.7 16.6 99 1010.9 17.4 S 21.3 0.0 0.9
20:01 16.7 16.6 99 1010.8 19.7 SE 21.3 0.0 0.9
20:02 16.7 16.6 99 1010.8 19.7 SE 21.3 0.0 0.9
20:03 16.7 16.6 99 1010.8 16.8 S 19.7 0.0 0.9
20:04 16.7 16.6 99 1010.8 19.0 SE 19.7 0.0 0.9
20:06 16.7 16.6 99 1010.9 23.5 S 23.5 0.0 0.9
20:07 16.7 16.6 99 1010.9 18.3 S 23.5 0.0 0.9
20:08 16.7 16.6 99 1010.9 17.4 SSW 23.5 0.0 0.9
20:09 16.7 16.6 99 1010.9 16.8 S 23.5 0.0 0.9
20:10 16.7 16.6 99 1010.8 16.8 S 23.5 0.0 0.9
20:11 16.7 16.6 99 1010.8 18.3 SE 23.5 0.0 0.9
20:12 16.7 16.6 99 1011.1 20.6 S 23.5 0.0 0.9
20:13 16.7 16.6 99 1010.8 22.1 S 23.5 0.0 0.9
20:14 16.7 16.6 99 1010.9 20.6 SW 23.5 0.0 0.9
20:15 16.7 16.6 99 1011.0 19.7 S 23.5 0.0 0.9
20:16 16.7 16.6 99 1010.9 17.4 NNW 22.1 0.0 0.9
20:17 16.7 16.6 99 1010.8 19.7 S 22.1 0.0 0.9
20:18 16.7 16.6 99 1010.9 16.8 SE 22.1 0.0 0.9
20:19 16.7 16.6 99 1011.0 19.0 SE 24.4 0.0 0.9
20:20 16.7 16.6 99 1010.9 19.0 S 24.4 0.0 0.9
20:21 16.7 16.6 99 1010.9 18.3 S 24.4 0.0 0.9
20:22 16.8 16.7 99 1010.9 17.4 SW 24.4 0.0 0.9
20:23 16.8 16.7 99 1010.8 20.6 SE 24.4 0.0 0.9
20:24 16.8 16.7 99 1011.0 19.0 S 24.4 0.0 0.9
20:26 16.8 16.7 99 1011.0 19.7 SE 24.4 0.0 0.9
20:27 16.7 16.6 99 1010.8 21.3 S 24.4 0.0 0.9
20:28 16.8 16.7 99 1011.0 16.8 S 24.4 0.0 0.9
20:29 16.8 16.7 99 1010.8 21.3 S 21.3 0.0 0.9
20:30 16.7 16.6 99 1010.9 20.6 SE 21.3 0.0 0.9
20:31 16.8 16.7 99 1011.0 19.7 SW 21.3 0.0 0.9
20:32 16.8 16.7 99 1010.9 20.6 S 21.3 0.0 0.9
20:33 16.7 16.6 99 1011.0 21.3 S 21.3 0.0 0.9
20:34 16.8 16.7 99 1011.0 17.4 S 22.8 0.0 0.9
20:35 16.7 16.6 99 1010.8 22.1 SE 22.8 0.0 0.9
20:36 16.8 16.7 99 1010.8 24.4 S 24.4 0.0 0.9
20:37 16.8 16.7 99 1010.8 19.0 S 24.4 0.0 0.9
20:38 16.8 16.7 99 1010.9 20.6 SW 24.4 0.0 0.9
20:39 16.8 16.7 99 1011.0 22.1 S 24.4 0.0 0.9
20:40 16.8 16.7 99 1011.2 20.6 S 24.4 0.0 0.9
20:41 16.8 16.7 99 1010.9 24.4 S 24.4 0.0 0.9
20:42 16.8 16.7 99 1011.0 18.3 S 24.4 0.0 0.9
20:43 16.8 16.7 99 1011.0 18.3 S 24.4 0.0 0.9
20:45 16.8 16.7 99 1010.8 18.3 S 24.4 0.0 0.9
20:46 16.8 16.7 99 1010.9 15.2 S 24.4 0.0 0.9
20:47 16.8 16.7 99 1010.8 21.3 SE 24.4 0.0 0.9
20:48 16.8 16.7 99 1010.8 22.1 SE 24.4 0.0 0.9
20:49 16.8 16.7 99 1010.8 18.3 S 24.4 0.0 0.9
20:50 16.8 16.7 99 1010.8 19.0 SE 24.4 0.0 0.9
20:51 16.8 16.7 99 1010.8 17.4 S 24.4 0.0 0.9
20:52 16.8 16.7 99 1010.8 17.4 S 22.1 0.0 0.9
20:53 16.8 16.7 99 1010.8 19.7 S 22.1 0.0 0.9
20:54 16.8 16.7 99 1010.8 19.7 NNE 22.1 0.0 1.0
20:55 16.8 16.7 99 1010.8 21.3 SE 22.1 0.8 1.0
20:56 16.8 16.7 99 1010.8 20.6 S 22.1 0.8 1.0
20:57 16.8 16.7 99 1010.8 19.0 S 22.1 0.8 1.0
20:58 16.8 16.7 99 1010.8 15.9 SE 21.3 0.8 1.0
20:59 16.8 16.7 99 1011.0 16.8 S 21.3 0.8 1.0
21:00 16.7 16.6 99 1010.9 18.3 SW 21.3 0.8 1.1
21:01 16.8 16.7 99 1010.8 20.6 S 21.3 0.8 1.1
21:02 16.7 16.6 99 1010.9 16.8 S 21.3 0.8 1.1
21:03 16.7 16.6 99 1010.8 13.6 S 21.3 0.8 1.1
21:04 16.7 16.6 99 1010.8 20.6 S 21.3 1.5 1.1
21:05 16.7 16.6 99 1010.8 19.0 SW 20.6 0.8 1.1
21:06 16.7 16.6 99 1010.8 19.0 S 20.6 0.8 1.1
21:07 16.7 16.6 99 1010.8 14.5 SW 20.6 0.8 1.1
21:08 16.7 16.6 99 1010.9 15.9 S 20.6 0.8 1.1
21:09 16.7 16.6 99 1010.9 14.5 S 20.6 0.0 1.1
21:10 16.7 16.6 99 1010.9 14.5 S 20.6 0.0 1.1
21:12 16.7 16.6 99 1010.8 19.7 S 20.6 0.0 1.1
21:13 16.7 16.6 99 1010.7 13.6 SW 20.6 0.0 1.1
21:14 16.7 16.6 99 1011.0 19.0 SW 20.6 0.0 1.1
21:15 16.7 16.6 99 1010.7 17.4 SW 20.6 0.0 1.1
21:16 16.7 16.6 99 1011.0 19.7 SW 20.6 0.0 1.1
21:17 16.6 16.5 99 1010.7 18.3 S 20.6 0.0 1.1
21:18 16.7 16.6 99 1010.9 25.1 S 25.1 0.0 1.1
21:20 16.6 16.5 99 1010.8 26.6 S 28.2 0.8 1.2
21:21 16.7 16.6 99 1010.8 15.9 WSW 28.2 0.8 1.2
21:22 16.7 16.6 99 1011.0 18.3 S 28.2 0.8 1.2
21:23 16.7 16.6 99 1010.8 21.3 S 28.2 0.8 1.2
21:24 16.7 16.6 99 1010.9 22.8 SW 28.2 0.8 1.2
21:25 16.6 16.5 99 1011.1 21.3 SE 28.2 0.0 1.2
21:26 16.7 16.6 99 1011.1 17.4 S 28.2 0.0 1.2
21:27 16.6 16.5 99 1011.1 18.3 S 28.2 0.0 1.2
21:28 16.7 16.6 99 1011.1 20.6 S 28.2 0.0 1.2
21:29 16.7 16.6 99 1011.2 23.5 S 28.2 0.0 1.2
21:30 16.7 16.6 99 1011.0 28.9 SW 28.9 0.0 1.2
21:31 16.7 16.6 99 1011.1 18.3 NE 28.9 0.0 1.2
21:32 16.7 16.6 99 1011.0 19.0 S 28.9 0.0 1.2
21:33 16.7 16.6 99 1011.1 16.8 S 28.9 0.0 1.2
21:34 16.7 16.6 99 1011.2 21.3 S 28.9 0.0 1.2
21:35 16.7 16.6 99 1011.3 25.1 S 28.9 0.0 1.2
21:36 16.7 16.6 99 1011.1 23.5 S 28.9 0.0 1.2
21:37 16.6 16.5 99 1011.1 21.3 SE 28.9 0.0 1.2
21:39 16.7 16.6 99 1011.3 19.7 S 28.9 0.0 1.2
21:40 16.7 16.6 99 1011.2 19.0 SE 28.9 0.0 1.2
21:41 16.7 16.6 99 1011.1 23.5 S 25.1 0.0 1.2
21:42 16.7 16.6 99 1011.1 20.6 S 25.1 0.0 1.2
21:43 16.7 16.6 99 1011.3 16.8 S 25.1 0.0 1.2
21:44 16.7 16.6 99 1011.0 22.8 SE 25.1 0.0 1.2
21:45 16.7 16.6 99 1011.2 21.3 SE 25.1 0.0 1.2
21:46 16.7 16.6 99 1011.2 24.4 WSW 25.1 0.0 1.2
21:47 16.7 16.6 99 1011.2 25.1 S 25.1 0.0 1.2
21:48 16.7 16.6 99 1011.3 16.8 S 25.1 0.0 1.2
21:49 16.7 16.6 99 1011.3 9.2 SW 25.1 0.0 1.2
21:50 16.7 16.6 99 1011.4 12.1 S 25.1 0.0 1.2
21:51 16.7 16.6 99 1011.4 10.7 S 25.1 0.0 1.2
21:52 16.7 16.6 99 1011.5 13.0 S 25.1 0.0 1.2
21:53 16.7 16.6 99 1011.5 21.3 SW 25.1 0.0 1.2
21:54 16.7 16.6 99 1011.5 19.0 S 25.1 0.0 1.2
21:55 16.7 16.6 99 1011.5 19.0 S 25.1 0.0 1.2
21:56 16.6 16.5 99 1011.7 17.4 S 25.1 0.0 1.2
21:58 16.5 16.4 99 1011.6 16.8 WNW 21.3 0.0 1.2
21:59 16.5 16.4 99 1011.6 15.2 SW 21.3 0.0 1.2
22:00 16.4 16.3 99 1011.5 15.9 SW 21.3 0.0 1.2
22:01 16.4 16.3 99 1011.6 17.4 S 21.3 0.0 1.2
22:02 16.4 16.3 99 1011.6 15.9 S 21.3 0.0 1.2
22:03 16.3 16.2 99 1011.5 13.0 SW 21.3 0.0 1.2
22:04 16.2 16.1 99 1011.4 10.7 S 21.3 0.0 1.2
22:05 16.2 16.1 99 1011.4 11.4 S 19.7 0.0 1.2
22:06 16.2 16.1 99 1011.5 13.6 S 17.4 0.0 1.2
22:07 16.1 16.0 99 1011.4 17.4 SW 17.4 0.0 1.2
22:08 16.1 16.0 99 1011.3 15.9 SW 17.4 0.0 1.2
22:09 16.1 16.0 99 1011.3 10.7 SW 17.4 0.0 1.2
22:10 16.1 16.0 99 1011.3 10.7 SW 17.4 0.0 1.2
22:11 16.1 16.0 99 1011.3 10.7 SW 17.4 0.0 1.2
22:12 16.1 16.0 99 1011.4 10.7 SW 17.4 0.0 1.2
22:13 16.1 16.0 99 1011.3 10.7 SW 17.4 0.0 1.2
22:14 16.1 16.0 99 1011.3 10.7 SW 17.4 0.0 1.2
22:15 16.0 15.9 99 1011.3 9.8 S 17.4 0.0 1.2
22:17 16.0 15.9 99 1011.3 12.1 SW 17.4 0.0 1.2
22:18 16.0 15.9 99 1011.2 9.2 SSE 15.9 0.0 1.2
22:19 16.0 15.9 99 1011.2 9.2 S 13.0 0.0 1.2
22:20 16.0 15.9 99 1011.3 9.2 S 13.0 0.0 1.2
22:21 16.0 15.9 99 1011.2 11.4 S 13.0 0.0 1.2
22:22 16.0 15.9 99 1011.4 10.7 SW 13.0 0.0 1.2
22:23 16.0 15.9 99 1011.3 14.5 S 14.5 0.0 1.2
22:24 16.0 15.9 99 1011.3 13.0 SW 14.5 0.0 1.2
22:25 16.0 15.9 99 1011.5 13.0 SW 14.5 0.0 1.2
22:26 16.0 15.9 99 1011.5 10.7 SW 14.5 0.0 1.2
22:27 16.0 15.9 99 1011.4 13.6 S 14.5 0.0 1.2
22:28 16.0 15.9 99 1011.5 8.3 S 14.5 0.0 1.2
22:29 16.0 15.9 99 1011.4 13.6 SW 14.5 0.0 1.2
22:30 16.0 15.9 99 1011.5 13.0 S 14.5 0.0 1.2
22:31 16.1 16.0 99 1011.4 12.1 SW 14.5 0.0 1.2
22:32 16.1 16.0 99 1011.4 16.8 S 16.8 0.0 1.2
22:33 16.1 16.0 99 1011.4 13.6 S 16.8 0.0 1.2
22:34 16.1 16.0 99 1011.5 13.0 SW 16.8 0.0 1.2
22:35 16.1 16.0 99 1011.6 15.2 SW 16.8 0.0 1.2
22:36 16.1 16.0 99 1011.4 13.0 S 16.8 0.0 1.2
22:37 16.1 16.0 99 1011.6 12.1 SW 16.8 0.0 1.2
22:38 16.2 16.1 99 1011.9 13.0 SSW 16.8 0.0 1.2
22:39 16.2 16.1 99 1011.8 13.6 SW 16.8 0.0 1.2
22:40 16.2 16.1 99 1011.9 15.2 S 16.8 0.0 1.2
22:41 16.2 16.1 99 1011.7 15.9 SW 16.8 0.0 1.2
22:42 16.2 16.1 99 1011.8 14.5 S 15.9 0.0 1.2
22:43 16.2 16.1 99 1011.8 15.2 SW 15.9 0.0 1.2
22:44 16.2 16.1 99 1011.8 15.9 S 15.9 0.0 1.2
22:45 16.2 16.1 99 1011.7 13.0 S 15.9 0.0 1.2
22:46 16.3 16.2 99 1011.7 9.8 SW 15.9 0.0 1.2
22:47 16.3 16.2 99 1011.7 11.4 S 15.9 0.0 1.2
22:48 16.3 16.2 99 1011.7 11.4 S 15.9 0.0 1.2
22:49 16.3 16.2 99 1011.6 13.0 S 15.9 0.0 1.2
22:51 16.3 16.2 99 1011.7 12.1 SE 15.9 0.0 1.2
22:52 16.3 16.2 99 1011.7 16.8 SE 17.4 0.0 1.2
22:53 16.4 16.3 99 1011.8 15.9 SE 17.4 0.0 1.2
22:54 16.4 16.3 99 1011.8 22.8 NW 22.8 0.0 1.2
22:55 16.4 16.3 99 1011.5 15.9 S 22.8 0.0 1.2
22:56 16.4 16.3 99 1011.7 17.4 WSW 22.8 0.0 1.2
22:57 16.4 16.3 99 1011.8 17.4 SW 22.8 0.0 1.2
22:58 16.4 16.3 99 1011.8 14.5 W 22.8 0.0 1.2
22:59 16.4 16.3 99 1011.9 13.0 S 22.8 0.0 1.2
23:00 16.4 16.3 99 1011.8 16.8 S 22.8 0.0 1.2
23:01 16.4 16.3 99 1012.0 15.9 S 22.8 0.0 1.2
23:02 16.4 16.3 99 1012.0 15.9 S 22.8 0.0 1.2
23:03 16.4 16.3 99 1011.7 15.9 SW 22.8 0.0 1.2
23:05 16.5 16.4 99 1011.7 15.9 SW 17.4 0.0 1.2
23:06 16.5 16.4 99 1011.7 17.4 SW 17.4 0.0 1.2
23:07 16.5 16.4 99 1011.6 15.9 S 17.4 0.0 1.2
23:08 16.5 16.4 99 1011.6 12.1 S 17.4 0.0 1.2
23:09 16.4 16.3 99 1011.6 13.6 S 17.4 0.0 1.2
23:10 16.4 16.3 99 1011.7 13.6 S 17.4 0.0 1.2
23:11 16.5 16.4 99 1011.6 17.4 S 17.4 0.0 1.2
23:12 16.5 16.4 99 1011.6 13.0 SW 17.4 0.0 1.2
23:13 16.5 16.4 99 1011.7 13.6 SW 17.4 0.0 1.2
23:14 16.5 16.4 99 1011.5 15.2 S 17.4 0.0 1.2
23:15 16.4 16.3 99 1011.7 14.5 SW 17.4 0.0 1.2
23:16 16.4 16.3 99 1011.6 15.2 SE 17.4 0.0 1.2
23:17 16.4 16.3 99 1011.4 17.4 SW 17.4 0.0 1.2
23:18 16.4 16.3 99 1011.7 15.9 S 17.4 0.0 1.2
23:19 16.4 16.3 99 1011.5 13.0 S 17.4 0.0 1.2
23:20 16.4 16.3 99 1011.6 11.4 S 17.4 0.0 1.2
23:21 16.4 16.3 99 1011.5 15.9 SW 17.4 0.0 1.2
23:22 16.4 16.3 99 1011.5 12.1 SW 17.4 0.0 1.2
23:23 16.4 16.3 99 1011.6 13.6 S 17.4 0.0 1.2
23:24 16.4 16.3 99 1011.4 15.2 SW 17.4 0.0 1.2
23:25 16.4 16.3 99 1011.6 11.4 SW 17.4 0.0 1.2
23:26 16.4 16.3 99 1011.5 13.6 S 17.4 0.0 1.2
23:27 16.4 16.3 99 1011.6 11.4 S 15.9 0.0 1.2
23:28 16.4 16.3 99 1011.5 13.0 S 15.9 0.0 1.2
23:29 16.4 16.3 99 1011.5 10.7 S 15.9 0.0 1.2
23:30 16.4 16.3 99 1011.5 14.5 W 15.9 0.0 1.2
23:31 16.3 16.2 99 1011.4 15.2 SW 15.9 0.0 1.2
23:32 16.3 16.2 99 1011.5 13.0 S 15.2 0.0 1.2
23:33 16.3 16.2 99 1011.4 17.4 S 17.4 0.0 1.2
23:35 16.3 16.2 99 1011.5 11.4 S 17.4 0.0 1.2
23:36 16.3 16.2 99 1011.8 12.1 S 17.4 0.0 1.2
23:37 16.3 16.2 99 1011.6 14.5 S 17.4 0.0 1.2
23:38 16.3 16.2 99 1011.4 12.1 SW 17.4 0.0 1.2
23:39 16.3 16.2 99 1011.7 14.5 NW 17.4 0.0 1.2
23:40 16.3 16.2 99 1011.5 11.4 SW 17.4 0.0 1.2
23:41 16.3 16.2 99 1011.6 14.5 S 17.4 0.0 1.2
23:42 16.3 16.2 99 1011.6 12.1 S 17.4 0.0 1.2
23:43 16.3 16.2 99 1011.4 16.8 SW 16.8 0.0 1.2
23:44 16.3 16.2 99 1011.5 17.4 SW 17.4 0.0 1.2
23:45 16.3 16.2 99 1011.5 9.8 SW 17.4 0.0 1.2
23:46 16.3 16.2 99 1011.6 11.4 SW 17.4 0.0 1.2
23:47 16.3 16.2 99 1011.6 14.5 S 17.4 0.0 1.2
23:48 16.3 16.2 99 1011.8 16.8 S 17.4 0.0 1.2
23:49 16.3 16.2 99 1011.7 12.1 SE 17.4 0.0 1.2
23:50 16.3 16.2 99 1011.7 17.4 SE 17.4 0.0 1.2
23:51 16.2 16.1 99 1011.8 11.4 S 17.4 0.0 1.2
23:52 16.3 16.2 99 1011.5 11.4 SW 17.4 0.0 1.2
23:53 16.2 16.1 99 1011.7 15.9 SSW 17.4 0.0 1.2
23:55 16.2 16.1 99 1011.7 12.1 S 17.4 0.0 1.2
23:56 16.2 16.1 99 1011.6 10.7 SW 17.4 0.0 1.2
23:57 16.2 16.1 99 1011.6 12.1 S 17.4 0.0 1.2
23:58 16.2 16.1 99 1011.8 20.6 SW 20.6 0.0 1.2
23:59 16.2 16.1 99 1011.7 16.8 SE 20.6 0.0 1.2

UK - WEATHER STATION TOPSITES - UK World Weather Websites

This is a private weather station, never base important decisions or events on data from this weather station. Although every effort has been made to make the data as accurate as possible it does not meet MetOffice standards. It is proved as a guide of local weather conditions. We accept no liability for any loss which may arise from use of the data.

Copyright © Carnkie Weather 2009 - 2018.